Observation data for Hackberry on 12/09/2018      Previous  Date  Next       Current Mesonet Observations  Soil Data  Daily Summary Page  Observations in Plain Language
KHA3 090600Z 25005KT M03/M04 A3033 RMK A01 T10311043  RH  091%=      5-min Rain = 0
KHA3 090601Z 25005KT M03/M04 A3033 RMK A01 T10311043  RH  091%=      5-min Rain = 0
KHA3 090602Z 25005KT M03/M04 A3033 RMK A01 T10311043  RH  091%=      5-min Rain = 0
KHA3 090603Z 25005KT M03/M04 A3033 RMK A01 T10301044  RH  091%=      5-min Rain = 0
KHA3 090604Z 25005KT M03/M04 A3033 RMK A01 T10311044  RH  091%=      5-min Rain = 0
KHA3 090605Z 25005KT M03/M04 A3033 RMK A01 T10311044  RH  091%=      5-min Rain = 0
KHA3 090606Z 25005KT M03/M04 A3033 RMK A01 T10311044  RH  091%=      5-min Rain = 0
KHA3 090607Z 25005KT M03/M04 A3033 RMK A01 T10301043  RH  091%=      5-min Rain = 0
KHA3 090608Z 25005KT M03/M04 A3033 RMK A01 T10301043  RH  091%=      5-min Rain = 0
KHA3 090609Z 25005KT M03/M04 A3033 RMK A01 T10301044  RH  090%=      5-min Rain = 0
KHA3 090610Z 25005KT M03/M04 A3033 RMK A01 T10301044  RH  090%=      5-min Rain = 0
KHA3 090611Z 25005KT M03/M04 A3033 RMK A01 T10311044  RH  090%=      5-min Rain = 0
KHA3 090612Z 25005KT M03/M04 A3033 RMK A01 T10301044  RH  090%=      5-min Rain = 0
KHA3 090613Z 25005KT M03/M04 A3033 RMK A01 T10311044  RH  090%=      5-min Rain = 0
KHA3 090614Z 25005KT M03/M04 A3033 RMK A01 T10311044  RH  090%=      5-min Rain = 0
KHA3 090615Z 25005KT M03/M05 A3033 RMK A01 T10311045  RH  090%=      5-min Rain = 0
KHA3 090616Z 25005KT M03/M05 A3033 RMK A01 T10321045  RH  090%=      5-min Rain = 0
KHA3 090617Z 25005KT M03/M05 A3033 RMK A01 T10321045  RH  091%=      5-min Rain = 0
KHA3 090618Z 25005KT M03/M05 A3033 RMK A01 T10321045  RH  091%=      5-min Rain = 0
KHA3 090619Z 25005KT M03/M05 A3033 RMK A01 T10311045  RH  091%=      5-min Rain = 0
KHA3 090620Z 25005KT M03/M05 A3033 RMK A01 T10311045  RH  091%=      5-min Rain = 0
KHA3 090621Z 25005KT M03/M05 A3033 RMK A01 T10321045  RH  090%=      5-min Rain = 0
KHA3 090622Z 25005KT M03/M05 A3033 RMK A01 T10321046  RH  090%=      5-min Rain = 0
KHA3 090623Z 25005KT M03/M05 A3033 RMK A01 T10321046  RH  090%=      5-min Rain = 0
KHA3 090624Z 25005KT M03/M05 A3033 RMK A01 T10321045  RH  090%=      5-min Rain = 0
KHA3 090625Z 25005KT M03/M05 A3033 RMK A01 T10321045  RH  090%=      5-min Rain = 0
KHA3 090626Z 25005KT M03/M05 A3033 RMK A01 T10311045  RH  090%=      5-min Rain = 0
KHA3 090627Z 25005KT M03/M05 A3033 RMK A01 T10311045  RH  090%=      5-min Rain = 0
KHA3 090628Z 25005KT M03/M05 A3033 RMK A01 T10311045  RH  090%=      5-min Rain = 0
KHA3 090629Z 25006KT M03/M05 A3033 RMK A01 T10311045  RH  090%=      5-min Rain = 0
KHA3 090630Z 25006KT M03/M05 A3033 RMK A01 T10311046  RH  090%=      5-min Rain = 0
KHA3 090631Z 25006KT M03/M05 A3033 RMK A01 T10311046  RH  090%=      5-min Rain = 0
KHA3 090632Z 25006KT M03/M05 A3033 RMK A01 T10311046  RH  090%=      5-min Rain = 0
KHA3 090633Z 25006KT M03/M05 A3033 RMK A01 T10311046  RH  090%=      5-min Rain = 0
KHA3 090634Z 25006KT M03/M05 A3033 RMK A01 T10321047  RH  089%=      5-min Rain = 0
KHA3 090635Z 25006KT M03/M05 A3033 RMK A01 T10331048  RH  090%=      5-min Rain = 0
KHA3 090636Z 24005KT M03/M05 A3033 RMK A01 T10331048  RH  090%=      5-min Rain = 0
KHA3 090637Z 25005KT M03/M05 A3033 RMK A01 T10341048  RH  090%=      5-min Rain = 0
KHA3 090638Z 25005KT M03/M05 A3033 RMK A01 T10341048  RH  090%=      5-min Rain = 0
KHA3 090639Z 25005KT M04/M05 A3033 RMK A01 T10351049  RH  090%=      5-min Rain = 0
KHA3 090640Z 25005KT M04/M05 A3033 RMK A01 T10351049  RH  090%=      5-min Rain = 0
KHA3 090641Z 25005KT M04/M05 A3033 RMK A01 T10351048  RH  090%=      5-min Rain = 0
KHA3 090642Z 25005KT M04/M05 A3033 RMK A01 T10351048  RH  091%=      5-min Rain = 0
KHA3 090643Z 25005KT M03/M05 A3033 RMK A01 T10341048  RH  091%=      5-min Rain = 0
KHA3 090644Z 25005KT M03/M05 A3033 RMK A01 T10341047  RH  091%=      5-min Rain = 0
KHA3 090645Z 25005KT M03/M05 A3033 RMK A01 T10331047  RH  090%=      5-min Rain = 0
KHA3 090646Z 25004KT M03/M05 A3033 RMK A01 T10331047  RH  090%=      5-min Rain = 0
KHA3 090647Z 25005KT M03/M05 A3033 RMK A01 T10331047  RH  090%=      5-min Rain = 0
KHA3 090648Z 25004KT M03/M05 A3033 RMK A01 T10331047  RH  090%=      5-min Rain = 0
KHA3 090649Z 25005KT M03/M05 A3033 RMK A01 T10331047  RH  090%=      5-min Rain = 0
KHA3 090650Z 25005KT M03/M05 A3033 RMK A01 T10331047  RH  090%=      5-min Rain = 0
KHA3 090651Z 26004KT M03/M05 A3033 RMK A01 T10331047  RH  090%=      5-min Rain = 0
KHA3 090652Z 26004KT M03/M05 A3032 RMK A01 T10331048  RH  090%=      5-min Rain = 0
KHA3 090653Z 26004KT M03/M05 A3032 RMK A01 T10331047  RH  090%=      5-min Rain = 0
KHA3 090654Z 26005KT M03/M05 A3032 RMK A01 T10331048  RH  090%=      5-min Rain = 0
KHA3 090655Z 26004KT M03/M05 A3032 RMK A01 T10331048  RH  090%=      5-min Rain = 0
KHA3 090656Z 26005KT M03/M05 A3032 RMK A01 T10341048  RH  090%=      5-min Rain = 0
KHA3 090657Z 26005KT M03/M05 A3032 RMK A01 T10341048  RH  090%=      5-min Rain = 0
KHA3 090658Z 26005KT M03/M05 A3033 RMK A01 T10331048  RH  090%=      5-min Rain = 0
KHA3 090659Z 26005KT M03/M05 A3033 RMK A01 T10331048  RH  090%=      5-min Rain = 0
KHA3 090700Z 26005KT M03/M05 A3033 RMK A01 T10341048  RH  090%=      5-min Rain = 0
KHA3 090701Z 26005KT M03/M05 A3033 RMK A01 T10341049  RH  090%=      5-min Rain = 0
KHA3 090702Z 26005KT M04/M05 A3033 RMK A01 T10351049  RH  090%=      5-min Rain = 0
KHA3 090703Z 26005KT M04/M05 A3033 RMK A01 T10351049  RH  090%=      5-min Rain = 0
KHA3 090704Z 26005KT M04/M05 A3033 RMK A01 T10351049  RH  090%=      5-min Rain = 0
KHA3 090705Z 26005KT M04/M05 A3033 RMK A01 T10361051  RH  090%=      5-min Rain = 0
KHA3 090706Z 26005KT M04/M05 A3033 RMK A01 T10371051  RH  090%=      5-min Rain = 0
KHA3 090707Z 26005KT M04/M05 A3033 RMK A01 T10371051  RH  090%=      5-min Rain = 0
KHA3 090708Z 26005KT M04/M05 A3033 RMK A01 T10371051  RH  091%=      5-min Rain = 0
KHA3 090709Z 27005KT M04/M05 A3033 RMK A01 T10381051  RH  091%=      5-min Rain = 0
KHA3 090710Z 26006KT M04/M05 A3033 RMK A01 T10381051  RH  091%=      5-min Rain = 0
KHA3 090711Z 27006KT M04/M05 A3033 RMK A01 T10381051  RH  091%=      5-min Rain = 0
KHA3 090712Z 27006KT M04/M05 A3033 RMK A01 T10381050  RH  091%=      5-min Rain = 0
KHA3 090713Z 27005KT M04/M05 A3033 RMK A01 T10381050  RH  092%=      5-min Rain = 0
KHA3 090714Z 27005KT M04/M05 A3033 RMK A01 T10381050  RH  092%=      5-min Rain = 0
KHA3 090715Z 27005KT M04/M05 A3033 RMK A01 T10381050  RH  092%=      5-min Rain = 0
KHA3 090716Z 26005KT M04/M05 A3033 RMK A01 T10391050  RH  092%=      5-min Rain = 0
KHA3 090717Z 26005KT M04/M05 A3033 RMK A01 T10391051  RH  091%=      5-min Rain = 0
KHA3 090718Z 26005KT M04/M05 A3033 RMK A01 T10401052  RH  091%=      5-min Rain = 0
KHA3 090719Z 26005KT M04/M05 A3033 RMK A01 T10401052  RH  091%=      5-min Rain = 0
KHA3 090720Z 26005KT M04/M05 A3033 RMK A01 T10411053  RH  092%=      5-min Rain = 0
KHA3 090721Z 25005KT M04/M05 A3033 RMK A01 T10411052  RH  092%=      5-min Rain = 0
KHA3 090722Z 25005KT M04/M05 A3033 RMK A01 T10411052  RH  092%=      5-min Rain = 0
KHA3 090723Z 25005KT M04/M05 A3033 RMK A01 T10411051  RH  092%=      5-min Rain = 0
KHA3 090724Z 25005KT M04/M05 A3033 RMK A01 T10401051  RH  092%=      5-min Rain = 0
KHA3 090725Z 26005KT M04/M05 A3033 RMK A01 T10401051  RH  092%=      5-min Rain = 0
KHA3 090726Z 26005KT M04/M05 A3033 RMK A01 T10401051  RH  092%=      5-min Rain = 0
KHA3 090727Z 26005KT M04/M05 A3033 RMK A01 T10401051  RH  092%=      5-min Rain = 0
KHA3 090728Z 27004KT M04/M05 A3033 RMK A01 T10401051  RH  092%=      5-min Rain = 0
KHA3 090729Z 27004KT M04/M05 A3033 RMK A01 T10401051  RH  092%=      5-min Rain = 0
KHA3 090730Z 27004KT M04/M05 A3033 RMK A01 T10401051  RH  092%=      5-min Rain = 0
KHA3 090731Z 27004KT M04/M05 A3033 RMK A01 T10391051  RH  092%=      5-min Rain = 0
KHA3 090732Z 27004KT M04/M05 A3033 RMK A01 T10391050  RH  092%=      5-min Rain = 0
KHA3 090733Z 27004KT M04/M05 A3033 RMK A01 T10381050  RH  092%=      5-min Rain = 0
KHA3 090734Z 27004KT M04/M05 A3033 RMK A01 T10391050  RH  092%=      5-min Rain = 0
KHA3 090735Z 27004KT M04/M05 A3033 RMK A01 T10381050  RH  092%=      5-min Rain = 0
KHA3 090736Z 27004KT M04/M05 A3033 RMK A01 T10381049  RH  092%=      5-min Rain = 0
KHA3 090737Z 27003KT M04/M05 A3033 RMK A01 T10371049  RH  091%=      5-min Rain = 0
KHA3 090738Z 27003KT M04/M05 A3033 RMK A01 T10371050  RH  091%=      5-min Rain = 0
KHA3 090739Z 27004KT M04/M05 A3033 RMK A01 T10371050  RH  091%=      5-min Rain = 0
KHA3 090740Z 27004KT M04/M05 A3033 RMK A01 T10381050  RH  091%=      5-min Rain = 0
KHA3 090741Z 28004KT M04/M05 A3033 RMK A01 T10381050  RH  091%=      5-min Rain = 0
KHA3 090742Z 28003KT M04/M05 A3032 RMK A01 T10381050  RH  091%=      5-min Rain = 0
KHA3 090743Z 30003KT M04/M05 A3032 RMK A01 T10371049  RH  092%=      5-min Rain = 0
KHA3 090744Z 30003KT M04/M05 A3032 RMK A01 T10361047  RH  092%=      5-min Rain = 0
KHA3 090745Z 30003KT M04/M05 A3032 RMK A01 T10351047  RH  092%=      5-min Rain = 0
KHA3 090746Z 30003KT M04/M05 A3032 RMK A01 T10351047  RH  092%=      5-min Rain = 0
KHA3 090747Z 30002KT M03/M05 A3032 RMK A01 T10341046  RH  091%=      5-min Rain = 0
KHA3 090748Z 30002KT M03/M05 A3032 RMK A01 T10341046  RH  091%=      5-min Rain = 0
KHA3 090749Z 30003KT M03/M05 A3032 RMK A01 T10341047  RH  091%=      5-min Rain = 0
KHA3 090750Z 30003KT M03/M05 A3032 RMK A01 T10331046  RH  091%=      5-min Rain = 0
KHA3 090751Z 29003KT M03/M05 A3032 RMK A01 T10331046  RH  091%=      5-min Rain = 0
KHA3 090752Z 29003KT M03/M05 A3032 RMK A01 T10331046  RH  091%=      5-min Rain = 0
KHA3 090753Z 29003KT M03/M05 A3032 RMK A01 T10331046  RH  090%=      5-min Rain = 0
KHA3 090754Z 29003KT M03/M05 A3032 RMK A01 T10331047  RH  090%=      5-min Rain = 0
KHA3 090755Z 29003KT M03/M05 A3033 RMK A01 T10331047  RH  090%=      5-min Rain = 0
KHA3 090756Z 28003KT M03/M05 A3033 RMK A01 T10331047  RH  090%=      5-min Rain = 0
KHA3 090757Z 28003KT M03/M05 A3033 RMK A01 T10341048  RH  090%=      5-min Rain = 0
KHA3 090758Z 28003KT M03/M05 A3033 RMK A01 T10341048  RH  090%=      5-min Rain = 0
KHA3 090759Z 28004KT M04/M05 A3033 RMK A01 T10351049  RH  090%=      5-min Rain = 0
KHA3 090800Z 27004KT M04/M05 A3033 RMK A01 T10361050  RH  090%=      5-min Rain = 0
KHA3 090801Z 27004KT M04/M05 A3033 RMK A01 T10361050  RH  090%=      5-min Rain = 0
KHA3 090802Z 27004KT M04/M05 A3033 RMK A01 T10371050  RH  090%=      5-min Rain = 0
KHA3 090803Z 27004KT M04/M05 A3033 RMK A01 T10371050  RH  091%=      5-min Rain = 0
KHA3 090804Z 27004KT M04/M05 A3033 RMK A01 T10371050  RH  091%=      5-min Rain = 0
KHA3 090805Z 28004KT M04/M05 A3033 RMK A01 T10381050  RH  091%=      5-min Rain = 0
KHA3 090806Z 28004KT M04/M05 A3033 RMK A01 T10381051  RH  091%=      5-min Rain = 0
KHA3 090807Z 29003KT M04/M05 A3033 RMK A01 T10391052  RH  091%=      5-min Rain = 0
KHA3 090808Z 30004KT M04/M05 A3033 RMK A01 T10391052  RH  091%=      5-min Rain = 0
KHA3 090809Z 30004KT M04/M05 A3033 RMK A01 T10391051  RH  091%=      5-min Rain = 0
KHA3 090810Z 30004KT M04/M05 A3033 RMK A01 T10391051  RH  091%=      5-min Rain = 0
KHA3 090811Z 31004KT M04/M05 A3033 RMK A01 T10391051  RH  091%=      5-min Rain = 0
KHA3 090812Z 30003KT M04/M05 A3033 RMK A01 T10391051  RH  091%=      5-min Rain = 0
KHA3 090813Z 30004KT M04/M05 A3033 RMK A01 T10381050  RH  091%=      5-min Rain = 0
KHA3 090814Z 30003KT M04/M05 A3033 RMK A01 T10371050  RH  091%=      5-min Rain = 0
KHA3 090815Z 31003KT M04/M05 A3033 RMK A01 T10371050  RH  091%=      5-min Rain = 0
KHA3 090816Z 31004KT M04/M05 A3033 RMK A01 T10361050  RH  090%=      5-min Rain = 0
KHA3 090817Z 31004KT M04/M05 A3033 RMK A01 T10361050  RH  090%=      5-min Rain = 0
KHA3 090818Z 31004KT M04/M05 A3033 RMK A01 T10361050  RH  090%=      5-min Rain = 0
KHA3 090819Z 31004KT M04/M05 A3033 RMK A01 T10361050  RH  090%=      5-min Rain = 0
KHA3 090820Z 32004KT M04/M05 A3033 RMK A01 T10361050  RH  090%=      5-min Rain = 0
KHA3 090821Z 32004KT M04/M05 A3033 RMK A01 T10361050  RH  090%=      5-min Rain = 0
KHA3 090822Z 31004KT M04/M05 A3033 RMK A01 T10361050  RH  090%=      5-min Rain = 0
KHA3 090823Z 31004KT M04/M05 A3033 RMK A01 T10361050  RH  090%=      5-min Rain = 0
KHA3 090824Z 30004KT M04/M05 A3033 RMK A01 T10361050  RH  090%=      5-min Rain = 0
KHA3 090825Z 29005KT M04/M05 A3033 RMK A01 T10361051  RH  090%=      5-min Rain = 0
KHA3 090826Z 29005KT M04/M05 A3033 RMK A01 T10371051  RH  090%=      5-min Rain = 0
KHA3 090827Z 28005KT M04/M05 A3033 RMK A01 T10371051  RH  090%=      5-min Rain = 0
KHA3 090828Z 28005KT M04/M05 A3033 RMK A01 T10391054  RH  089%=      5-min Rain = 0
KHA3 090829Z 28004KT M04/M06 A3033 RMK A01 T10421057  RH  089%=      5-min Rain = 0
KHA3 090830Z 27005KT M04/M06 A3033 RMK A01 T10441058  RH  090%=      5-min Rain = 0
KHA3 090831Z 27005KT M05/M06 A3033 RMK A01 T10451059  RH  090%=      5-min Rain = 0
KHA3 090832Z 27006KT M05/M06 A3033 RMK A01 T10471060  RH  091%=      5-min Rain = 0
KHA3 090833Z 27006KT M05/M06 A3033 RMK A01 T10471059  RH  092%=      5-min Rain = 0
KHA3 090834Z 27006KT M05/M06 A3033 RMK A01 T10461056  RH  093%=      5-min Rain = 0
KHA3 090835Z 26007KT M05/M06 A3033 RMK A01 T10451056  RH  092%=      5-min Rain = 0
KHA3 090836Z 26006KT M05/M06 A3033 RMK A01 T10461057  RH  091%=      5-min Rain = 0
KHA3 090837Z 27006KT M05/M06 A3033 RMK A01 T10461058  RH  091%=      5-min Rain = 0
KHA3 090838Z 27006KT M05/M06 A3033 RMK A01 T10461058  RH  092%=      5-min Rain = 0
KHA3 090839Z 27006KT M05/M06 A3033 RMK A01 T10461058  RH  091%=      5-min Rain = 0
KHA3 090840Z 27005KT M05/M06 A3033 RMK A01 T10451057  RH  091%=      5-min Rain = 0
KHA3 090841Z 28005KT M05/M06 A3033 RMK A01 T10451057  RH  091%=      5-min Rain = 0
KHA3 090842Z 28006KT M05/M06 A3033 RMK A01 T10451057  RH  091%=      5-min Rain = 0
KHA3 090843Z 29005KT M04/M06 A3033 RMK A01 T10441057  RH  091%=      5-min Rain = 0
KHA3 090844Z 29005KT M05/M06 A3033 RMK A01 T10451057  RH  091%=      5-min Rain = 0
KHA3 090845Z 29005KT M04/M06 A3033 RMK A01 T10441057  RH  091%=      5-min Rain = 0
KHA3 090846Z 29005KT M04/M06 A3033 RMK A01 T10441057  RH  091%=      5-min Rain = 0
KHA3 090847Z 29005KT M04/M06 A3033 RMK A01 T10441057  RH  091%=      5-min Rain = 0
KHA3 090848Z 29005KT M04/M06 A3033 RMK A01 T10431057  RH  090%=      5-min Rain = 0
KHA3 090849Z 29005KT M04/M06 A3033 RMK A01 T10441057  RH  090%=      5-min Rain = 0
KHA3 090850Z 29006KT M04/M06 A3033 RMK A01 T10441057  RH  090%=      5-min Rain = 0
KHA3 090851Z 30006KT M04/M06 A3033 RMK A01 T10441057  RH  090%=      5-min Rain = 0
KHA3 090852Z 30006KT M04/M06 A3033 RMK A01 T10431057  RH  091%=      5-min Rain = 0
KHA3 090853Z 30006KT M04/M06 A3033 RMK A01 T10421055  RH  091%=      5-min Rain = 0
KHA3 090854Z 30006KT M04/M06 A3033 RMK A01 T10411055  RH  091%=      5-min Rain = 0
KHA3 090855Z 31005KT M04/M05 A3033 RMK A01 T10411054  RH  090%=      5-min Rain = 0
KHA3 090856Z 31005KT M04/M05 A3033 RMK A01 T10401054  RH  090%=      5-min Rain = 0
KHA3 090857Z 31006KT M04/M06 A3033 RMK A01 T10401055  RH  090%=      5-min Rain = 0
KHA3 090858Z 31006KT M04/M06 A3033 RMK A01 T10401055  RH  089%=      5-min Rain = 0
KHA3 090859Z 31006KT M04/M06 A3033 RMK A01 T10401055  RH  089%=      5-min Rain = 0
KHA3 090900Z 31005KT M04/M06 A3033 RMK A01 T10401055  RH  089%=      5-min Rain = 0
KHA3 090901Z 31005KT M04/M06 A3033 RMK A01 T10401056  RH  089%=      5-min Rain = 0
KHA3 090902Z 31006KT M04/M06 A3033 RMK A01 T10411055  RH  089%=      5-min Rain = 0
KHA3 090903Z 31006KT M04/M06 A3033 RMK A01 T10411055  RH  090%=      5-min Rain = 0
KHA3 090904Z 31005KT M04/M06 A3033 RMK A01 T10411055  RH  090%=      5-min Rain = 0
KHA3 090905Z 31005KT M04/M06 A3033 RMK A01 T10411055  RH  090%=      5-min Rain = 0
KHA3 090906Z 30006KT M04/M06 A3033 RMK A01 T10411055  RH  090%=      5-min Rain = 0
KHA3 090907Z 30006KT M04/M06 A3033 RMK A01 T10411055  RH  090%=      5-min Rain = 0
KHA3 090908Z 30006KT M04/M06 A3033 RMK A01 T10411055  RH  090%=      5-min Rain = 0
KHA3 090909Z 30006KT M04/M06 A3033 RMK A01 T10411055  RH  090%=      5-min Rain = 0
KHA3 090910Z 30005KT M04/M06 A3033 RMK A01 T10421056  RH  090%=      5-min Rain = 0
KHA3 090911Z 31005KT M04/M06 A3033 RMK A01 T10421056  RH  090%=      5-min Rain = 0
KHA3 090912Z 31005KT M04/M06 A3032 RMK A01 T10411055  RH  091%=      5-min Rain = 0
KHA3 090913Z 31005KT M04/M06 A3032 RMK A01 T10421055  RH  091%=      5-min Rain = 0
KHA3 090914Z 31006KT M04/M05 A3032 RMK A01 T10421054  RH  091%=      5-min Rain = 0
KHA3 090915Z 31005KT M04/M05 A3032 RMK A01 T10411054  RH  091%=      5-min Rain = 0
KHA3 090916Z 32005KT M04/M05 A3032 RMK A01 T10411054  RH  091%=      5-min Rain = 0
KHA3 090917Z 32005KT M04/M05 A3032 RMK A01 T10411054  RH  091%=      5-min Rain = 0
KHA3 090918Z 32005KT M04/M05 A3032 RMK A01 T10411054  RH  090%=      5-min Rain = 0
KHA3 090919Z 31005KT M04/M06 A3032 RMK A01 T10411055  RH  090%=      5-min Rain = 0
KHA3 090920Z 31005KT M04/M06 A3032 RMK A01 T10411055  RH  090%=      5-min Rain = 0
KHA3 090921Z 31006KT M04/M06 A3032 RMK A01 T10411055  RH  090%=      5-min Rain = 0
KHA3 090922Z 31006KT M04/M06 A3032 RMK A01 T10411055  RH  090%=      5-min Rain = 0
KHA3 090923Z 31006KT M04/M06 A3032 RMK A01 T10411055  RH  090%=      5-min Rain = 0
KHA3 090924Z 31006KT M04/M06 A3032 RMK A01 T10411055  RH  090%=      5-min Rain = 0
KHA3 090925Z 31005KT M04/M06 A3032 RMK A01 T10411055  RH  090%=      5-min Rain = 0
KHA3 090926Z 30006KT M04/M06 A3032 RMK A01 T10411056  RH  090%=      5-min Rain = 0
KHA3 090927Z 30005KT M04/M06 A3033 RMK A01 T10421057  RH  090%=      5-min Rain = 0
KHA3 090928Z 30005KT M04/M06 A3033 RMK A01 T10431057  RH  090%=      5-min Rain = 0
KHA3 090929Z 30005KT M04/M06 A3033 RMK A01 T10431057  RH  090%=      5-min Rain = 0
KHA3 090930Z 30005KT M04/M06 A3033 RMK A01 T10431057  RH  090%=      5-min Rain = 0
KHA3 090931Z 30004KT M04/M06 A3033 RMK A01 T10431057  RH  090%=      5-min Rain = 0
KHA3 090932Z 30004KT M04/M06 A3033 RMK A01 T10431056  RH  090%=      5-min Rain = 0
KHA3 090933Z 29004KT M04/M06 A3033 RMK A01 T10431056  RH  091%=      5-min Rain = 0
KHA3 090934Z 29004KT M04/M06 A3033 RMK A01 T10431056  RH  091%=      5-min Rain = 0
KHA3 090935Z 28003KT M04/M06 A3033 RMK A01 T10431055  RH  092%=      5-min Rain = 0
KHA3 090936Z 28003KT M04/M06 A3033 RMK A01 T10431055  RH  092%=      5-min Rain = 0
KHA3 090937Z 29004KT M04/M05 A3033 RMK A01 T10431054  RH  092%=      5-min Rain = 0
KHA3 090938Z 29003KT M04/M06 A3033 RMK A01 T10431055  RH  091%=      5-min Rain = 0
KHA3 090939Z 29003KT M04/M06 A3033 RMK A01 T10431055  RH  091%=      5-min Rain = 0
KHA3 090940Z 30004KT M04/M06 A3033 RMK A01 T10431055  RH  091%=      5-min Rain = 0
KHA3 090941Z 30004KT M04/M06 A3033 RMK A01 T10421056  RH  091%=      5-min Rain = 0
KHA3 090942Z 31004KT M04/M06 A3033 RMK A01 T10421056  RH  090%=      5-min Rain = 0
KHA3 090943Z 30004KT M04/M06 A3033 RMK A01 T10431056  RH  090%=      5-min Rain = 0
KHA3 090944Z 31004KT M04/M06 A3033 RMK A01 T10431056  RH  090%=      5-min Rain = 0
KHA3 090945Z 30004KT M04/M06 A3033 RMK A01 T10421056  RH  090%=      5-min Rain = 0
KHA3 090946Z 31004KT M04/M06 A3033 RMK A01 T10421056  RH  090%=      5-min Rain = 0
KHA3 090947Z 31005KT M04/M06 A3033 RMK A01 T10421056  RH  090%=      5-min Rain = 0
KHA3 090948Z 31005KT M04/M06 A3033 RMK A01 T10411056  RH  090%=      5-min Rain = 0
KHA3 090949Z 31005KT M04/M06 A3033 RMK A01 T10411056  RH  090%=      5-min Rain = 0
KHA3 090950Z 31005KT M04/M06 A3033 RMK A01 T10411056  RH  089%=      5-min Rain = 0
KHA3 090951Z 31005KT M04/M06 A3033 RMK A01 T10411056  RH  089%=      5-min Rain = 0
KHA3 090952Z 31005KT M04/M06 A3033 RMK A01 T10411057  RH  089%=      5-min Rain = 0
KHA3 090953Z 31004KT M04/M06 A3033 RMK A01 T10401057  RH  088%=      5-min Rain = 0
KHA3 090954Z 31005KT M04/M06 A3033 RMK A01 T10411057  RH  088%=      5-min Rain = 0
KHA3 090955Z 31005KT M04/M06 A3032 RMK A01 T10411058  RH  088%=      5-min Rain = 0
KHA3 090956Z 31005KT M04/M06 A3032 RMK A01 T10411058  RH  088%=      5-min Rain = 0
KHA3 090957Z 31005KT M04/M06 A3032 RMK A01 T10411058  RH  088%=      5-min Rain = 0
KHA3 090958Z 31005KT M04/M06 A3032 RMK A01 T10411059  RH  088%=      5-min Rain = 0
KHA3 090959Z 31005KT M04/M06 A3032 RMK A01 T10411059  RH  088%=      5-min Rain = 0
KHA3 091000Z 31005KT M04/M06 A3032 RMK A01 T10411059  RH  087%=      5-min Rain = 0
KHA3 091001Z 31005KT M04/M06 A3032 RMK A01 T10411059  RH  087%=      5-min Rain = 0
KHA3 091002Z 32005KT M04/M06 A3032 RMK A01 T10411059  RH  087%=      5-min Rain = 0
KHA3 091003Z 32005KT M04/M06 A3032 RMK A01 T10411059  RH  087%=      5-min Rain = 0
KHA3 091004Z 32005KT M04/M06 A3032 RMK A01 T10411059  RH  087%=      5-min Rain = 0
KHA3 091005Z 32005KT M04/M06 A3032 RMK A01 T10411059  RH  087%=      5-min Rain = 0
KHA3 091006Z 32005KT M04/M06 A3032 RMK A01 T10411059  RH  087%=      5-min Rain = 0
KHA3 091007Z 32005KT M04/M06 A3032 RMK A01 T10411059  RH  087%=      5-min Rain = 0
KHA3 091008Z 32005KT M04/M06 A3032 RMK A01 T10411060  RH  087%=      5-min Rain = 0
KHA3 091009Z 32004KT M04/M06 A3032 RMK A01 T10421060  RH  087%=      5-min Rain = 0
KHA3 091010Z 32004KT M04/M06 A3032 RMK A01 T10411060  RH  087%=      5-min Rain = 0
KHA3 091011Z 32004KT M04/M06 A3032 RMK A01 T10421060  RH  087%=      5-min Rain = 0
KHA3 091012Z 32004KT M04/M06 A3032 RMK A01 T10421060  RH  087%=      5-min Rain = 0
KHA3 091013Z 32005KT M04/M06 A3032 RMK A01 T10421060  RH  087%=      5-min Rain = 0
KHA3 091014Z 32004KT M04/M06 A3032 RMK A01 T10431061  RH  087%=      5-min Rain = 0
KHA3 091015Z 32005KT M04/M06 A3032 RMK A01 T10431061  RH  087%=      5-min Rain = 0
KHA3 091016Z 32005KT M04/M06 A3032 RMK A01 T10431060  RH  088%=      5-min Rain = 0
KHA3 091017Z 32004KT M04/M06 A3032 RMK A01 T10421060  RH  088%=      5-min Rain = 0
KHA3 091018Z 31005KT M04/M06 A3032 RMK A01 T10421060  RH  087%=      5-min Rain = 0
KHA3 091019Z 31005KT M04/M06 A3032 RMK A01 T10421060  RH  087%=      5-min Rain = 0
KHA3 091020Z 31005KT M04/M06 A3032 RMK A01 T10421061  RH  087%=      5-min Rain = 0
KHA3 091021Z 31005KT M04/M06 A3032 RMK A01 T10431061  RH  087%=      5-min Rain = 0
KHA3 091022Z 31005KT M04/M06 A3032 RMK A01 T10431062  RH  087%=      5-min Rain = 0
KHA3 091023Z 31005KT M04/M06 A3032 RMK A01 T10441062  RH  087%=      5-min Rain = 0
KHA3 091024Z 31005KT M04/M06 A3032 RMK A01 T10441063  RH  087%=      5-min Rain = 0
KHA3 091025Z 31005KT M05/M06 A3032 RMK A01 T10451063  RH  087%=      5-min Rain = 0
KHA3 091026Z 31005KT M04/M06 A3033 RMK A01 T10441062  RH  087%=      5-min Rain = 0
KHA3 091027Z 30004KT M04/M06 A3033 RMK A01 T10441062  RH  087%=      5-min Rain = 0
KHA3 091028Z 30004KT M04/M06 A3033 RMK A01 T10441062  RH  087%=      5-min Rain = 0
KHA3 091029Z 30005KT M04/M06 A3033 RMK A01 T10441062  RH  087%=      5-min Rain = 0
KHA3 091030Z 30004KT M05/M06 A3033 RMK A01 T10451063  RH  087%=      5-min Rain = 0
KHA3 091031Z 30004KT M04/M06 A3033 RMK A01 T10441062  RH  087%=      5-min Rain = 0
KHA3 091032Z 30004KT M04/M06 A3033 RMK A01 T10441062  RH  087%=      5-min Rain = 0
KHA3 091033Z 30004KT M04/M06 A3033 RMK A01 T10441061  RH  087%=      5-min Rain = 0
KHA3 091034Z 30004KT M04/M06 A3033 RMK A01 T10431061  RH  087%=      5-min Rain = 0
KHA3 091035Z 30004KT M04/M06 A3033 RMK A01 T10431062  RH  087%=      5-min Rain = 0
KHA3 091036Z 30004KT M04/M06 A3033 RMK A01 T10441062  RH  087%=      5-min Rain = 0
KHA3 091037Z 30004KT M04/M06 A3033 RMK A01 T10441062  RH  087%=      5-min Rain = 0
KHA3 091038Z 30003KT M04/M06 A3033 RMK A01 T10441062  RH  087%=      5-min Rain = 0
KHA3 091039Z 30004KT M04/M06 A3033 RMK A01 T10441063  RH  087%=      5-min Rain = 0
KHA3 091040Z 30004KT M04/M06 A3033 RMK A01 T10431063  RH  086%=      5-min Rain = 0
KHA3 091041Z 30004KT M04/M06 A3033 RMK A01 T10441064  RH  086%=      5-min Rain = 0
KHA3 091042Z 30004KT M04/M06 A3033 RMK A01 T10441064  RH  086%=      5-min Rain = 0
KHA3 091043Z 30004KT M04/M07 A3033 RMK A01 T10441065  RH  086%=      5-min Rain = 0
KHA3 091044Z 30004KT M04/M07 A3033 RMK A01 T10441065  RH  085%=      5-min Rain = 0
KHA3 091045Z 30004KT M04/M07 A3033 RMK A01 T10441065  RH  085%=      5-min Rain = 0
KHA3 091046Z 31005KT M04/M07 A3033 RMK A01 T10441066  RH  085%=      5-min Rain = 0
KHA3 091047Z 31005KT M04/M07 A3033 RMK A01 T10441066  RH  084%=      5-min Rain = 0
KHA3 091048Z 31005KT M04/M07 A3033 RMK A01 T10441067  RH  084%=      5-min Rain = 0
KHA3 091049Z 31006KT M04/M07 A3033 RMK A01 T10431067  RH  084%=      5-min Rain = 0
KHA3 091050Z 31005KT M04/M07 A3033 RMK A01 T10431067  RH  084%=      5-min Rain = 0
KHA3 091051Z 30005KT M04/M07 A3033 RMK A01 T10431067  RH  083%=      5-min Rain = 0
KHA3 091052Z 30005KT M04/M07 A3033 RMK A01 T10431068  RH  083%=      5-min Rain = 0
KHA3 091053Z 29005KT M04/M07 A3033 RMK A01 T10431067  RH  083%=      5-min Rain = 0
KHA3 091054Z 29005KT M04/M07 A3033 RMK A01 T10441067  RH  084%=      5-min Rain = 0
KHA3 091055Z 29004KT M04/M07 A3033 RMK A01 T10441067  RH  084%=      5-min Rain = 0
KHA3 091056Z 28004KT M04/M07 A3033 RMK A01 T10441067  RH  084%=      5-min Rain = 0
KHA3 091057Z 28004KT M05/M07 A3033 RMK A01 T10451067  RH  085%=      5-min Rain = 0
KHA3 091058Z 28004KT M05/M07 A3033 RMK A01 T10461066  RH  086%=      5-min Rain = 0
KHA3 091059Z 28003KT M05/M07 A3033 RMK A01 T10461066  RH  086%=      5-min Rain = 0
KHA3 091100Z 27003KT M05/M07 A3033 RMK A01 T10461066  RH  086%=      5-min Rain = 0
KHA3 091101Z 27003KT M05/M07 A3033 RMK A01 T10451065  RH  086%=      5-min Rain = 0
KHA3 091102Z 28003KT M05/M07 A3033 RMK A01 T10451065  RH  086%=      5-min Rain = 0
KHA3 091103Z 27003KT M05/M07 A3033 RMK A01 T10461066  RH  086%=      5-min Rain = 0
KHA3 091104Z 27003KT M05/M07 A3033 RMK A01 T10481067  RH  086%=      5-min Rain = 0
KHA3 091105Z 27003KT M05/M07 A3033 RMK A01 T10481067  RH  087%=      5-min Rain = 0
KHA3 091106Z 27003KT M05/M07 A3033 RMK A01 T10481067  RH  087%=      5-min Rain = 0
KHA3 091107Z 28003KT M05/M07 A3033 RMK A01 T10481066  RH  087%=      5-min Rain = 0
KHA3 091108Z 28003KT M05/M07 A3033 RMK A01 T10471066  RH  087%=      5-min Rain = 0
KHA3 091109Z 28003KT M05/M07 A3033 RMK A01 T10471066  RH  086%=      5-min Rain = 0
KHA3 091110Z 28003KT M05/M07 A3033 RMK A01 T10461066  RH  086%=      5-min Rain = 0
KHA3 091111Z 28003KT M05/M07 A3033 RMK A01 T10461066  RH  086%=      5-min Rain = 0
KHA3 091112Z 28004KT M05/M07 A3033 RMK A01 T10461066  RH  086%=      5-min Rain = 0
KHA3 091113Z 29004KT M05/M07 A3033 RMK A01 T10461066  RH  086%=      5-min Rain = 0
KHA3 091114Z 28004KT M05/M07 A3033 RMK A01 T10461066  RH  086%=      5-min Rain = 0
KHA3 091115Z 28004KT M05/M07 A3033 RMK A01 T10461067  RH  086%=      5-min Rain = 0
KHA3 091116Z 28003KT M05/M07 A3033 RMK A01 T10471067  RH  086%=      5-min Rain = 0
KHA3 091117Z 28004KT M05/M07 A3033 RMK A01 T10471067  RH  086%=      5-min Rain = 0
KHA3 091118Z 29004KT M05/M07 A3033 RMK A01 T10471067  RH  086%=      5-min Rain = 0
KHA3 091119Z 29004KT M05/M07 A3033 RMK A01 T10471067  RH  086%=      5-min Rain = 0
KHA3 091120Z 29004KT M05/M07 A3034 RMK A01 T10471067  RH  086%=      5-min Rain = 0
KHA3 091121Z 29005KT M05/M07 A3034 RMK A01 T10471068  RH  085%=      5-min Rain = 0
KHA3 091122Z 30005KT M05/M07 A3034 RMK A01 T10471068  RH  085%=      5-min Rain = 0
KHA3 091123Z 30005KT M05/M07 A3034 RMK A01 T10471068  RH  085%=      5-min Rain = 0
KHA3 091124Z 30005KT M05/M07 A3034 RMK A01 T10471067  RH  086%=      5-min Rain = 0
KHA3 091125Z 30005KT M05/M07 A3034 RMK A01 T10471068  RH  085%=      5-min Rain = 0
KHA3 091126Z 30005KT M05/M07 A3034 RMK A01 T10461068  RH  085%=      5-min Rain = 0
KHA3 091127Z 30005KT M05/M07 A3034 RMK A01 T10461068  RH  085%=      5-min Rain = 0
KHA3 091128Z 30005KT M05/M07 A3034 RMK A01 T10461068  RH  085%=      5-min Rain = 0
KHA3 091129Z 30005KT M05/M07 A3034 RMK A01 T10451068  RH  085%=      5-min Rain = 0
KHA3 091130Z 30005KT M05/M07 A3034 RMK A01 T10451068  RH  084%=      5-min Rain = 0
KHA3 091131Z 30005KT M05/M07 A3034 RMK A01 T10451068  RH  084%=      5-min Rain = 0
KHA3 091132Z 30005KT M05/M07 A3034 RMK A01 T10451068  RH  084%=      5-min Rain = 0
KHA3 091133Z 30004KT M05/M07 A3034 RMK A01 T10451068  RH  084%=      5-min Rain = 0
KHA3 091134Z 30004KT M05/M07 A3034 RMK A01 T10451068  RH  084%=      5-min Rain = 0
KHA3 091135Z 30005KT M05/M07 A3034 RMK A01 T10451068  RH  084%=      5-min Rain = 0
KHA3 091136Z 30004KT M05/M07 A3034 RMK A01 T10451068  RH  084%=      5-min Rain = 0
KHA3 091137Z 29004KT M04/M07 A3034 RMK A01 T10441068  RH  083%=      5-min Rain = 0
KHA3 091138Z 30004KT M04/M07 A3034 RMK A01 T10441068  RH  083%=      5-min Rain = 0
KHA3 091139Z 29004KT M04/M07 A3034 RMK A01 T10441069  RH  083%=      5-min Rain = 0
KHA3 091140Z 30004KT M04/M07 A3034 RMK A01 T10441069  RH  083%=      5-min Rain = 0
KHA3 091141Z 30004KT M04/M07 A3034 RMK A01 T10441069  RH  083%=      5-min Rain = 0
KHA3 091142Z 30004KT M04/M07 A3034 RMK A01 T10431069  RH  083%=      5-min Rain = 0
KHA3 091143Z 30004KT M04/M07 A3034 RMK A01 T10431069  RH  083%=      5-min Rain = 0
KHA3 091144Z 30004KT M04/M07 A3035 RMK A01 T10431069  RH  082%=      5-min Rain = 0
KHA3 091145Z 30004KT M04/M07 A3035 RMK A01 T10431069  RH  082%=      5-min Rain = 0
KHA3 091146Z 29004KT M04/M07 A3035 RMK A01 T10431069  RH  082%=      5-min Rain = 0
KHA3 091147Z 29004KT M04/M07 A3035 RMK A01 T10431069  RH  082%=      5-min Rain = 0
KHA3 091148Z 29004KT M04/M07 A3035 RMK A01 T10421069  RH  082%=      5-min Rain = 0
KHA3 091149Z 29004KT M04/M07 A3035 RMK A01 T10421069  RH  082%=      5-min Rain = 0
KHA3 091150Z 28004KT M04/M07 A3035 RMK A01 T10421069  RH  081%=      5-min Rain = 0
KHA3 091151Z 28004KT M04/M07 A3035 RMK A01 T10421069  RH  082%=      5-min Rain = 0
KHA3 091152Z 27004KT M04/M07 A3035 RMK A01 T10421068  RH  082%=      5-min Rain = 0
KHA3 091153Z 27003KT M04/M07 A3035 RMK A01 T10421068  RH  082%=      5-min Rain = 0
KHA3 091154Z 27004KT M04/M07 A3035 RMK A01 T10421068  RH  082%=      5-min Rain = 0
KHA3 091155Z 28003KT M04/M07 A3035 RMK A01 T10421068  RH  082%=      5-min Rain = 0
KHA3 091156Z 28004KT M04/M07 A3035 RMK A01 T10431069  RH  082%=      5-min Rain = 0
KHA3 091157Z 28004KT M04/M07 A3035 RMK A01 T10431069  RH  082%=      5-min Rain = 0
KHA3 091158Z 28004KT M04/M07 A3035 RMK A01 T10431069  RH  082%=      5-min Rain = 0
KHA3 091159Z 29004KT M04/M07 A3035 RMK A01 T10431070  RH  082%=      5-min Rain = 0
KHA3 091200Z 30005KT M04/M07 A3035 RMK A01 T10431070  RH  082%=      5-min Rain = 0
KHA3 091201Z 29004KT M04/M07 A3035 RMK A01 T10431069  RH  082%=      5-min Rain = 0
KHA3 091202Z 29004KT M04/M07 A3035 RMK A01 T10421069  RH  082%=      5-min Rain = 0
KHA3 091203Z 30004KT M04/M07 A3035 RMK A01 T10421069  RH  082%=      5-min Rain = 0
KHA3 091204Z 30004KT M04/M07 A3035 RMK A01 T10431069  RH  082%=      5-min Rain = 0
KHA3 091205Z 30004KT M04/M07 A3035 RMK A01 T10431069  RH  082%=      5-min Rain = 0
KHA3 091206Z 30004KT M04/M07 A3035 RMK A01 T10431069  RH  082%=      5-min Rain = 0
KHA3 091207Z 30004KT M04/M07 A3035 RMK A01 T10421069  RH  082%=      5-min Rain = 0
KHA3 091208Z 30004KT M04/M07 A3035 RMK A01 T10421069  RH  081%=      5-min Rain = 0
KHA3 091209Z 30004KT M04/M07 A3035 RMK A01 T10421069  RH  081%=      5-min Rain = 0
KHA3 091210Z 29004KT M04/M07 A3035 RMK A01 T10411069  RH  081%=      5-min Rain = 0
KHA3 091211Z 30004KT M04/M07 A3035 RMK A01 T10421070  RH  081%=      5-min Rain = 0
KHA3 091212Z 29003KT M04/M07 A3035 RMK A01 T10421070  RH  081%=      5-min Rain = 0
KHA3 091213Z 29004KT M04/M07 A3035 RMK A01 T10421070  RH  081%=      5-min Rain = 0
KHA3 091214Z 29004KT M04/M07 A3035 RMK A01 T10421069  RH  081%=      5-min Rain = 0
KHA3 091215Z 29004KT M04/M07 A3035 RMK A01 T10421069  RH  081%=      5-min Rain = 0
KHA3 091216Z 29004KT M04/M07 A3035 RMK A01 T10421069  RH  082%=      5-min Rain = 0
KHA3 091217Z 28004KT M04/M07 A3035 RMK A01 T10421069  RH  082%=      5-min Rain = 0
KHA3 091218Z 28004KT M04/M07 A3035 RMK A01 T10431071  RH  081%=      5-min Rain = 0
KHA3 091219Z 29004KT M04/M07 A3035 RMK A01 T10441072  RH  081%=      5-min Rain = 0
KHA3 091220Z 28003KT M05/M07 A3035 RMK A01 T10451072  RH  081%=      5-min Rain = 0
KHA3 091221Z 28003KT M05/M07 A3035 RMK A01 T10461072  RH  082%=      5-min Rain = 0
KHA3 091222Z 28003KT M05/M07 A3035 RMK A01 T10461071  RH  082%=      5-min Rain = 0
KHA3 091223Z 28003KT M05/M07 A3035 RMK A01 T10461071  RH  082%=      5-min Rain = 0
KHA3 091224Z 28003KT M05/M07 A3035 RMK A01 T10461071  RH  083%=      5-min Rain = 0
KHA3 091225Z 28004KT M05/M07 A3035 RMK A01 T10461071  RH  083%=      5-min Rain = 0
KHA3 091226Z 27004KT M05/M07 A3036 RMK A01 T10451071  RH  083%=      5-min Rain = 0
KHA3 091227Z 28004KT M05/M07 A3036 RMK A01 T10461071  RH  082%=      5-min Rain = 0
KHA3 091228Z 27004KT M05/M07 A3036 RMK A01 T10461072  RH  082%=      5-min Rain = 0
KHA3 091229Z 27004KT M05/M07 A3036 RMK A01 T10471072  RH  083%=      5-min Rain = 0
KHA3 091230Z 27004KT M05/M07 A3036 RMK A01 T10471072  RH  083%=      5-min Rain = 0
KHA3 091231Z 27004KT M05/M07 A3036 RMK A01 T10471072  RH  083%=      5-min Rain = 0
KHA3 091232Z 27004KT M05/M07 A3036 RMK A01 T10471071  RH  084%=      5-min Rain = 0
KHA3 091233Z 27004KT M05/M07 A3036 RMK A01 T10481071  RH  084%=      5-min Rain = 0
KHA3 091234Z 26004KT M05/M07 A3036 RMK A01 T10481071  RH  084%=      5-min Rain = 0
KHA3 091235Z 26004KT M05/M07 A3036 RMK A01 T10481071  RH  084%=      5-min Rain = 0
KHA3 091236Z 26004KT M05/M07 A3036 RMK A01 T10481072  RH  084%=      5-min Rain = 0
KHA3 091237Z 26004KT M05/M07 A3036 RMK A01 T10481072  RH  084%=      5-min Rain = 0
KHA3 091238Z 26004KT M05/M07 A3036 RMK A01 T10491072  RH  084%=      5-min Rain = 0
KHA3 091239Z 26004KT M05/M07 A3036 RMK A01 T10481071  RH  084%=      5-min Rain = 0
KHA3 091240Z 26004KT M05/M07 A3036 RMK A01 T10481071  RH  083%=      5-min Rain = 0
KHA3 091241Z 26004KT M05/M07 A3036 RMK A01 T10471071  RH  083%=      5-min Rain = 0
KHA3 091242Z 26004KT M05/M07 A3036 RMK A01 T10461071  RH  083%=      5-min Rain = 0
KHA3 091243Z 26004KT M05/M07 A3036 RMK A01 T10461071  RH  083%=      5-min Rain = 0
KHA3 091244Z 27004KT M05/M07 A3036 RMK A01 T10461071  RH  082%=      5-min Rain = 0
KHA3 091245Z 27004KT M05/M07 A3036 RMK A01 T10471073  RH  082%=      5-min Rain = 0
KHA3 091246Z 27004KT M05/M07 A3036 RMK A01 T10481074  RH  082%=      5-min Rain = 0
KHA3 091247Z 27003KT M05/M08 A3036 RMK A01 T10491075  RH  082%=      5-min Rain = 0
KHA3 091248Z 28004KT M05/M08 A3036 RMK A01 T10501075  RH  083%=      5-min Rain = 0
KHA3 091249Z 28003KT M05/M07 A3036 RMK A01 T10501074  RH  083%=      5-min Rain = 0
KHA3 091250Z 27003KT M05/M07 A3036 RMK A01 T10501074  RH  084%=      5-min Rain = 0
KHA3 091251Z 27004KT M05/M07 A3036 RMK A01 T10501073  RH  084%=      5-min Rain = 0
KHA3 091252Z 27004KT M05/M07 A3036 RMK A01 T10501073  RH  084%=      5-min Rain = 0
KHA3 091253Z 27004KT M05/M07 A3036 RMK A01 T10501073  RH  084%=      5-min Rain = 0
KHA3 091254Z 27004KT M05/M07 A3036 RMK A01 T10511074  RH  084%=      5-min Rain = 0
KHA3 091255Z 27004KT M05/M07 A3036 RMK A01 T10511074  RH  084%=      5-min Rain = 0
KHA3 091256Z 27003KT M05/M07 A3036 RMK A01 T10511074  RH  084%=      5-min Rain = 0
KHA3 091257Z 27003KT M05/M07 A3036 RMK A01 T10511074  RH  084%=      5-min Rain = 0
KHA3 091258Z 27003KT M05/M07 A3036 RMK A01 T10511073  RH  084%=      5-min Rain = 0
KHA3 091259Z 28004KT M05/M07 A3036 RMK A01 T10511073  RH  085%=      5-min Rain = 0
KHA3 091300Z 28004KT M05/M07 A3036 RMK A01 T10511074  RH  084%=      5-min Rain = 0
KHA3 091301Z 27004KT M05/M07 A3037 RMK A01 T10511073  RH  084%=      5-min Rain = 0
KHA3 091302Z 27004KT M05/M07 A3037 RMK A01 T10511073  RH  084%=      5-min Rain = 0
KHA3 091303Z 27004KT M05/M07 A3037 RMK A01 T10511073  RH  084%=      5-min Rain = 0
KHA3 091304Z 27004KT M05/M07 A3037 RMK A01 T10511074  RH  084%=      5-min Rain = 0
KHA3 091305Z 27004KT M05/M07 A3037 RMK A01 T10511074  RH  084%=      5-min Rain = 0
KHA3 091306Z 28004KT M05/M08 A3037 RMK A01 T10511075  RH  084%=      5-min Rain = 0
KHA3 091307Z 28004KT M05/M07 A3037 RMK A01 T10511074  RH  084%=      5-min Rain = 0
KHA3 091308Z 28004KT M05/M07 A3037 RMK A01 T10511073  RH  084%=      5-min Rain = 0
KHA3 091309Z 29004KT M05/M07 A3037 RMK A01 T10511073  RH  085%=      5-min Rain = 0
KHA3 091310Z 29004KT M05/M07 A3037 RMK A01 T10501072  RH  085%=      5-min Rain = 0
KHA3 091311Z 29004KT M05/M07 A3036 RMK A01 T10501072  RH  085%=      5-min Rain = 0
KHA3 091312Z 29004KT M05/M07 A3036 RMK A01 T10501072  RH  085%=      5-min Rain = 0
KHA3 091313Z 29005KT M05/M07 A3036 RMK A01 T10491071  RH  084%=      5-min Rain = 0
KHA3 091314Z 29005KT M05/M07 A3036 RMK A01 T10491072  RH  084%=      5-min Rain = 0
KHA3 091315Z 30005KT M05/M07 A3036 RMK A01 T10491073  RH  083%=      5-min Rain = 0
KHA3 091316Z 30005KT M05/M07 A3036 RMK A01 T10481073  RH  083%=      5-min Rain = 0
KHA3 091317Z 30005KT M05/M07 A3037 RMK A01 T10481073  RH  083%=      5-min Rain = 0
KHA3 091318Z 30005KT M05/M07 A3037 RMK A01 T10471073  RH  082%=      5-min Rain = 0
KHA3 091319Z 29005KT M05/M07 A3037 RMK A01 T10461073  RH  082%=      5-min Rain = 0
KHA3 091320Z 30005KT M05/M07 A3037 RMK A01 T10471074  RH  081%=      5-min Rain = 0
KHA3 091321Z 30005KT M05/M08 A3037 RMK A01 T10481075  RH  081%=      5-min Rain = 0
KHA3 091322Z 30005KT M05/M08 A3037 RMK A01 T10481075  RH  082%=      5-min Rain = 0
KHA3 091323Z 29005KT M05/M07 A3037 RMK A01 T10481074  RH  082%=      5-min Rain = 0
KHA3 091324Z 29005KT M05/M08 A3037 RMK A01 T10491075  RH  082%=      5-min Rain = 0
KHA3 091325Z 30005KT M05/M08 A3037 RMK A01 T10491075  RH  082%=      5-min Rain = 0
KHA3 091326Z 30005KT M05/M08 A3037 RMK A01 T10491075  RH  082%=      5-min Rain = 0
KHA3 091327Z 30005KT M05/M08 A3037 RMK A01 T10501075  RH  083%=      5-min Rain = 0
KHA3 091328Z 30005KT M05/M08 A3037 RMK A01 T10501075  RH  083%=      5-min Rain = 0
KHA3 091329Z 30005KT M05/M08 A3037 RMK A01 T10501075  RH  083%=      5-min Rain = 0
KHA3 091330Z 31005KT M05/M08 A3037 RMK A01 T10501075  RH  083%=      5-min Rain = 0
KHA3 091331Z 30005KT M05/M08 A3037 RMK A01 T10501075  RH  083%=      5-min Rain = 0
KHA3 091332Z 30005KT M05/M08 A3037 RMK A01 T10501075  RH  083%=      5-min Rain = 0
KHA3 091333Z 30005KT M05/M08 A3037 RMK A01 T10501075  RH  083%=      5-min Rain = 0
KHA3 091334Z 30005KT M05/M08 A3037 RMK A01 T10501075  RH  083%=      5-min Rain = 0
KHA3 091335Z 30005KT M05/M07 A3037 RMK A01 T10501074  RH  083%=      5-min Rain = 0
KHA3 091336Z 30004KT M05/M07 A3037 RMK A01 T10501074  RH  083%=      5-min Rain = 0
KHA3 091337Z 29004KT M05/M07 A3037 RMK A01 T10501074  RH  083%=      5-min Rain = 0
KHA3 091338Z 29004KT M05/M07 A3038 RMK A01 T10501074  RH  083%=      5-min Rain = 0
KHA3 091339Z 29004KT M05/M07 A3038 RMK A01 T10501074  RH  083%=      5-min Rain = 0
KHA3 091340Z 28004KT M05/M07 A3038 RMK A01 T10511074  RH  084%=      5-min Rain = 0
KHA3 091341Z 28004KT M05/M07 A3038 RMK A01 T10511073  RH  084%=      5-min Rain = 0
KHA3 091342Z 28004KT M05/M07 A3038 RMK A01 T10511073  RH  084%=      5-min Rain = 0
KHA3 091343Z 28004KT M05/M07 A3038 RMK A01 T10511074  RH  084%=      5-min Rain = 0
KHA3 091344Z 28005KT M05/M07 A3038 RMK A01 T10511074  RH  084%=      5-min Rain = 0
KHA3 091345Z 28004KT M05/M07 A3038 RMK A01 T10511074  RH  084%=      5-min Rain = 0
KHA3 091346Z 28004KT M05/M07 A3038 RMK A01 T10511074  RH  084%=      5-min Rain = 0
KHA3 091347Z 28004KT M05/M07 A3038 RMK A01 T10511074  RH  084%=      5-min Rain = 0
KHA3 091348Z 28004KT M05/M08 A3038 RMK A01 T10511075  RH  083%=      5-min Rain = 0
KHA3 091349Z 28004KT M05/M08 A3038 RMK A01 T10511075  RH  083%=      5-min Rain = 0
KHA3 091350Z 28004KT M05/M08 A3038 RMK A01 T10511075  RH  083%=      5-min Rain = 0
KHA3 091351Z 27004KT M05/M07 A3038 RMK A01 T10501074  RH  084%=      5-min Rain = 0
KHA3 091352Z 27004KT M05/M07 A3038 RMK A01 T10501074  RH  084%=      5-min Rain = 0
KHA3 091353Z 27004KT M05/M07 A3038 RMK A01 T10511074  RH  083%=      5-min Rain = 0
KHA3 091354Z 27004KT M05/M08 A3038 RMK A01 T10501075  RH  083%=      5-min Rain = 0
KHA3 091355Z 26004KT M05/M08 A3038 RMK A01 T10501075  RH  083%=      5-min Rain = 0
KHA3 091356Z 27004KT M05/M07 A3038 RMK A01 T10501074  RH  083%=      5-min Rain = 0
KHA3 091357Z 27004KT M05/M07 A3038 RMK A01 T10501074  RH  083%=      5-min Rain = 0
KHA3 091358Z 27005KT M05/M07 A3038 RMK A01 T10501074  RH  083%=      5-min Rain = 0
KHA3 091359Z 27005KT M05/M07 A3038 RMK A01 T10501074  RH  083%=      5-min Rain = 0
KHA3 091400Z 26005KT M05/M07 A3038 RMK A01 T10501074  RH  083%=      5-min Rain = 0
KHA3 091401Z 26005KT M05/M08 A3038 RMK A01 T10501075  RH  083%=      5-min Rain = 0
KHA3 091402Z 26005KT M05/M08 A3038 RMK A01 T10501075  RH  083%=      5-min Rain = 0
KHA3 091403Z 26005KT M05/M08 A3038 RMK A01 T10501075  RH  083%=      5-min Rain = 0
KHA3 091404Z 26005KT M05/M08 A3038 RMK A01 T10501075  RH  083%=      5-min Rain = 0
KHA3 091405Z 26004KT M05/M08 A3038 RMK A01 T10511075  RH  083%=      5-min Rain = 0
KHA3 091406Z 26004KT M05/M07 A3038 RMK A01 T10511074  RH  084%=      5-min Rain = 0
KHA3 091407Z 26004KT M05/M07 A3038 RMK A01 T10501073  RH  084%=      5-min Rain = 0
KHA3 091408Z 26004KT M05/M07 A3038 RMK A01 T10491072  RH  084%=      5-min Rain = 0
KHA3 091409Z 26004KT M05/M07 A3038 RMK A01 T10481072  RH  083%=      5-min Rain = 0
KHA3 091410Z 26004KT M05/M07 A3038 RMK A01 T10471071  RH  083%=      5-min Rain = 0
KHA3 091411Z 25004KT M05/M07 A3039 RMK A01 T10461071  RH  082%=      5-min Rain = 0
KHA3 091412Z 25004KT M05/M07 A3039 RMK A01 T10451071  RH  082%=      5-min Rain = 0
KHA3 091413Z 25004KT M05/M07 A3039 RMK A01 T10451072  RH  082%=      5-min Rain = 0
KHA3 091414Z 24004KT M05/M07 A3039 RMK A01 T10451072  RH  081%=      5-min Rain = 0
KHA3 091415Z 24004KT M05/M07 A3039 RMK A01 T10451072  RH  081%=      5-min Rain = 0
KHA3 091416Z 24004KT M05/M07 A3039 RMK A01 T10451072  RH  081%=      5-min Rain = 0
KHA3 091417Z 24004KT M05/M07 A3039 RMK A01 T10451072  RH  081%=      5-min Rain = 0
KHA3 091418Z 24004KT M05/M07 A3039 RMK A01 T10451072  RH  081%=      5-min Rain = 0
KHA3 091419Z 24004KT M05/M07 A3039 RMK A01 T10451072  RH  081%=      5-min Rain = 0
KHA3 091420Z 24004KT M04/M07 A3039 RMK A01 T10441071  RH  081%=      5-min Rain = 0
KHA3 091421Z 25004KT M04/M07 A3039 RMK A01 T10431070  RH  081%=      5-min Rain = 0
KHA3 091422Z 25004KT M04/M07 A3039 RMK A01 T10421070  RH  081%=      5-min Rain = 0
KHA3 091423Z 25004KT M04/M07 A3039 RMK A01 T10421070  RH  080%=      5-min Rain = 0
KHA3 091424Z 26004KT M04/M07 A3039 RMK A01 T10411071  RH  080%=      5-min Rain = 0
KHA3 091425Z 25004KT M04/M07 A3039 RMK A01 T10411070  RH  080%=      5-min Rain = 0
KHA3 091426Z 25004KT M04/M07 A3039 RMK A01 T10411070  RH  080%=      5-min Rain = 0
KHA3 091427Z 26004KT M04/M07 A3039 RMK A01 T10411070  RH  080%=      5-min Rain = 0
KHA3 091428Z 26004KT M04/M07 A3039 RMK A01 T10411070  RH  080%=      5-min Rain = 0
KHA3 091429Z 26004KT M04/M07 A3039 RMK A01 T10421070  RH  081%=      5-min Rain = 0
KHA3 091430Z 27003KT M04/M07 A3039 RMK A01 T10411069  RH  081%=      5-min Rain = 0
KHA3 091431Z 27003KT M04/M07 A3039 RMK A01 T10411069  RH  081%=      5-min Rain = 0
KHA3 091432Z 27004KT M04/M07 A3039 RMK A01 T10411069  RH  081%=      5-min Rain = 0
KHA3 091433Z 27003KT M04/M07 A3039 RMK A01 T10411068  RH  081%=      5-min Rain = 0
KHA3 091434Z 27003KT M04/M07 A3039 RMK A01 T10401068  RH  081%=      5-min Rain = 0
KHA3 091435Z 26004KT M04/M07 A3039 RMK A01 T10401067  RH  081%=      5-min Rain = 0
KHA3 091436Z 27003KT M04/M07 A3039 RMK A01 T10401067  RH  082%=      5-min Rain = 0
KHA3 091437Z 27003KT M04/M07 A3039 RMK A01 T10401066  RH  082%=      5-min Rain = 0
KHA3 091438Z 26004KT M04/M07 A3039 RMK A01 T10391065  RH  082%=      5-min Rain = 0
KHA3 091439Z 26003KT M04/M06 A3039 RMK A01 T10381064  RH  082%=      5-min Rain = 0
KHA3 091440Z 27003KT M04/M06 A3039 RMK A01 T10381064  RH  082%=      5-min Rain = 0
KHA3 091441Z 26003KT M04/M07 A304 RMK A01 T10381065  RH  082%=      5-min Rain = 0
KHA3 091442Z 27003KT M04/M06 A304 RMK A01 T10381064  RH  082%=      5-min Rain = 0
KHA3 091443Z 27003KT M04/M06 A304 RMK A01 T10381064  RH  082%=      5-min Rain = 0
KHA3 091444Z 28003KT M04/M06 A304 RMK A01 T10371062  RH  083%=      5-min Rain = 0
KHA3 091445Z 28004KT M04/M06 A304 RMK A01 T10371062  RH  083%=      5-min Rain = 0
KHA3 091446Z 28004KT M04/M06 A304 RMK A01 T10361061  RH  083%=      5-min Rain = 0
KHA3 091447Z 28004KT M04/M06 A304 RMK A01 T10361060  RH  083%=      5-min Rain = 0
KHA3 091448Z 28004KT M04/M06 A304 RMK A01 T10351059  RH  083%=      5-min Rain = 0
KHA3 091449Z 29004KT M03/M06 A304 RMK A01 T10341058  RH  083%=      5-min Rain = 0
KHA3 091450Z 28004KT M03/M06 A304 RMK A01 T10341058  RH  083%=      5-min Rain = 0
KHA3 091451Z 28004KT M03/M06 A304 RMK A01 T10331058  RH  083%=      5-min Rain = 0
KHA3 091452Z 27004KT M03/M06 A304 RMK A01 T10331057  RH  083%=      5-min Rain = 0
KHA3 091453Z 27004KT M03/M06 A304 RMK A01 T10321057  RH  083%=      5-min Rain = 0
KHA3 091454Z 27004KT M03/M06 A304 RMK A01 T10321057  RH  083%=      5-min Rain = 0
KHA3 091455Z 27003KT M03/M06 A304 RMK A01 T10311055  RH  084%=      5-min Rain = 0
KHA3 091456Z 28004KT M03/M05 A304 RMK A01 T10311054  RH  084%=      5-min Rain = 0
KHA3 091457Z 26004KT M03/M05 A304 RMK A01 T10301053  RH  084%=      5-min Rain = 0
KHA3 091458Z 27004KT M03/M05 A304 RMK A01 T10291053  RH  084%=      5-min Rain = 0
KHA3 091459Z 27004KT M03/M05 A304 RMK A01 T10291053  RH  084%=      5-min Rain = 0
KHA3 091500Z 27004KT M03/M05 A304 RMK A01 T10281054  RH  082%=      5-min Rain = 0
KHA3 091501Z 27004KT M03/M06 A304 RMK A01 T10271055  RH  081%=      5-min Rain = 0
KHA3 091502Z 27004KT M03/M05 A304 RMK A01 T10261054  RH  081%=      5-min Rain = 0
KHA3 091503Z 27004KT M03/M05 A304 RMK A01 T10251054  RH  081%=      5-min Rain = 0
KHA3 091504Z 27004KT M03/M06 A304 RMK A01 T10251055  RH  080%=      5-min Rain = 0
KHA3 091505Z 27004KT M03/M06 A304 RMK A01 T10251055  RH  080%=      5-min Rain = 0
KHA3 091506Z 26004KT M02/M06 A304 RMK A01 T10241055  RH  079%=      5-min Rain = 0
KHA3 091507Z 27004KT M02/M06 A304 RMK A01 T10241056  RH  079%=      5-min Rain = 0
KHA3 091508Z 28004KT M02/M06 A304 RMK A01 T10231055  RH  079%=      5-min Rain = 0
KHA3 091509Z 28004KT M02/M06 A304 RMK A01 T10231055  RH  079%=      5-min Rain = 0
KHA3 091510Z 28004KT M02/M06 A304 RMK A01 T10221055  RH  078%=      5-min Rain = 0
KHA3 091511Z 28004KT M02/M05 A304 RMK A01 T10221054  RH  079%=      5-min Rain = 0
KHA3 091512Z 28004KT M02/M05 A304 RMK A01 T10221054  RH  078%=      5-min Rain = 0
KHA3 091513Z 29005KT M02/M05 A304 RMK A01 T10221054  RH  079%=      5-min Rain = 0
KHA3 091514Z 29005KT M02/M05 A3041 RMK A01 T10221053  RH  079%=      5-min Rain = 0
KHA3 091515Z 29005KT M02/M05 A3041 RMK A01 T10211052  RH  079%=      5-min Rain = 0
KHA3 091516Z 28005KT M02/M05 A3041 RMK A01 T10201052  RH  079%=      5-min Rain = 0
KHA3 091517Z 28005KT M02/M05 A3041 RMK A01 T10191052  RH  079%=      5-min Rain = 0
KHA3 091518Z 28004KT M02/M05 A3041 RMK A01 T10191052  RH  078%=      5-min Rain = 0
KHA3 091519Z 28005KT M02/M05 A3041 RMK A01 T10191051  RH  078%=      5-min Rain = 0
KHA3 091520Z 29005KT M02/M05 A3041 RMK A01 T10181051  RH  078%=      5-min Rain = 0
KHA3 091521Z 28005KT M02/M05 A3041 RMK A01 T10171049  RH  079%=      5-min Rain = 0
KHA3 091522Z 29005KT M02/M05 A3041 RMK A01 T10171050  RH  078%=      5-min Rain = 0
KHA3 091523Z 29005KT M02/M05 A3041 RMK A01 T10161050  RH  078%=      5-min Rain = 0
KHA3 091524Z 29005KT M02/M05 A3041 RMK A01 T10161050  RH  078%=      5-min Rain = 0
KHA3 091525Z 29005KT M02/M05 A3041 RMK A01 T10151051  RH  077%=      5-min Rain = 0
KHA3 091526Z 29005KT M01/M05 A3041 RMK A01 T10141050  RH  077%=      5-min Rain = 0
KHA3 091527Z 29005KT M01/M05 A3041 RMK A01 T10141049  RH  077%=      5-min Rain = 0
KHA3 091528Z 29005KT M01/M05 A3041 RMK A01 T10131048  RH  077%=      5-min Rain = 0
KHA3 091529Z 29004KT M01/M05 A3041 RMK A01 T10131047  RH  077%=      5-min Rain = 0
KHA3 091530Z 29005KT M01/M05 A3041 RMK A01 T10131047  RH  078%=      5-min Rain = 0
KHA3 091531Z 28005KT M01/M05 A3041 RMK A01 T10121048  RH  077%=      5-min Rain = 0
KHA3 091532Z 29005KT M01/M05 A3041 RMK A01 T10121047  RH  077%=      5-min Rain = 0
KHA3 091533Z 28005KT M01/M05 A3041 RMK A01 T10111047  RH  077%=      5-min Rain = 0
KHA3 091534Z 28004KT M01/M05 A3042 RMK A01 T10111047  RH  076%=      5-min Rain = 0
KHA3 091535Z 29004KT M01/M05 A3042 RMK A01 T10101046  RH  077%=      5-min Rain = 0
KHA3 091536Z 30005KT M01/M05 A3042 RMK A01 T10101046  RH  077%=      5-min Rain = 0
KHA3 091537Z 29004KT M01/M05 A3042 RMK A01 T10101047  RH  076%=      5-min Rain = 0
KHA3 091538Z 29004KT M01/M05 A3042 RMK A01 T10091046  RH  076%=      5-min Rain = 0
KHA3 091539Z 29004KT M01/M04 A3042 RMK A01 T10091043  RH  077%=      5-min Rain = 0
KHA3 091540Z 30005KT M01/M04 A3042 RMK A01 T10081043  RH  077%=      5-min Rain = 0
KHA3 091541Z 30006KT M01/M04 A3042 RMK A01 T10081044  RH  076%=      5-min Rain = 0
KHA3 091542Z 30005KT M01/M04 A3042 RMK A01 T10071044  RH  076%=      5-min Rain = 0
KHA3 091543Z 31006KT M01/M05 A3042 RMK A01 T10061045  RH  075%=      5-min Rain = 0
KHA3 091544Z 31005KT M01/M05 A3042 RMK A01 T10061047  RH  074%=      5-min Rain = 0
KHA3 091545Z 31005KT M01/M05 A3042 RMK A01 T10061045  RH  075%=      5-min Rain = 0
KHA3 091546Z 31004KT M01/M04 A3042 RMK A01 T10051042  RH  076%=      5-min Rain = 0
KHA3 091547Z 30005KT M00/M04 A3042 RMK A01 T10041040  RH  076%=      5-min Rain = 0
KHA3 091548Z 31006KT M00/M04 A3042 RMK A01 T10031043  RH  075%=      5-min Rain = 0
KHA3 091549Z 31006KT M00/M05 A3042 RMK A01 T10021045  RH  073%=      5-min Rain = 0
KHA3 091550Z 31006KT M00/M05 A3042 RMK A01 T10021046  RH  072%=      5-min Rain = 0
KHA3 091551Z 30006KT M00/M04 A3042 RMK A01 T10021043  RH  074%=      5-min Rain = 0
KHA3 091552Z 31006KT M00/M04 A3042 RMK A01 T10011040  RH  075%=      5-min Rain = 0
KHA3 091553Z 30006KT M00/M04 A3043 RMK A01 T10011042  RH  074%=      5-min Rain = 0
KHA3 091554Z 31006KT 00/04 A3043 RMK A01 T00-00-43  RH  073%=      5-min Rain = 0
KHA3 091555Z 30005KT 00/04 A3043 RMK A01 T00-00-44  RH  072%=      5-min Rain = 0
KHA3 091556Z 31006KT 00/M04 A3043 RMK A01 T00011043  RH  072%=      5-min Rain = 0
KHA3 091557Z 31006KT 00/M04 A3043 RMK A01 T00011043  RH  072%=      5-min Rain = 0
KHA3 091558Z 31007KT 00/M04 A3043 RMK A01 T00021043  RH  072%=      5-min Rain = 0
KHA3 091559Z 30006KT 00/M05 A3043 RMK A01 T00021046  RH  070%=      5-min Rain = 0
KHA3 091600Z 30007KT 00/M05 A3043 RMK A01 T00021048  RH  069%=      5-min Rain = 0
KHA3 091601Z 30006KT 00/M05 A3043 RMK A01 T00021048  RH  069%=      5-min Rain = 0
KHA3 091602Z 30006KT 00/M05 A3043 RMK A01 T00031045  RH  070%=      5-min Rain = 0
KHA3 091603Z 30005KT 00/M04 A3043 RMK A01 T00031044  RH  071%=      5-min Rain = 0
KHA3 091604Z 30007KT 00/M04 A3043 RMK A01 T00041044  RH  070%=      5-min Rain = 0
KHA3 091605Z 31005KT 00/M05 A3043 RMK A01 T00041046  RH  069%=      5-min Rain = 0
KHA3 091606Z 32004KT 01/M04 A3043 RMK A01 T00051042  RH  071%=      5-min Rain = 0
KHA3 091607Z 31005KT 01/M04 A3043 RMK A01 T00051044  RH  069%=      5-min Rain = 0
KHA3 091608Z 32005KT 01/M05 A3043 RMK A01 T00061047  RH  067%=      5-min Rain = 0
KHA3 091609Z 31004KT 01/M04 A3043 RMK A01 T00071043  RH  069%=      5-min Rain = 0
KHA3 091610Z 32005KT 01/M04 A3043 RMK A01 T00081040  RH  070%=      5-min Rain = 0
KHA3 091611Z 31003KT 01/M04 A3043 RMK A01 T00081044  RH  068%=      5-min Rain = 0
KHA3 091612Z 33006KT 01/M04 A3043 RMK A01 T00091044  RH  068%=      5-min Rain = 0.01
KHA3 091613Z 31004KT 01/M05 A3043 RMK A01 T00091047  RH  066%=      5-min Rain = 0
KHA3 091614Z 32003KT 01/M04 A3043 RMK A01 T00091043  RH  068%=      5-min Rain = 0
KHA3 091615Z 32003KT 01/M04 A3043 RMK A01 T00101039  RH  070%=      5-min Rain = 0
KHA3 091616Z 32005KT 01/M04 A3043 RMK A01 T00111039  RH  069%=      5-min Rain = 0
KHA3 091617Z 33005KT 01/M05 A3043 RMK A01 T00111048  RH  065%=      5-min Rain = 0
KHA3 091618Z 34005KT 01/M05 A3043 RMK A01 T00111047  RH  065%=      5-min Rain = 0
KHA3 091619Z 35004KT 01/M05 A3043 RMK A01 T00121048  RH  064%=      5-min Rain = 0
KHA3 091620Z 32004KT 01/M05 A3043 RMK A01 T00121047  RH  065%=      5-min Rain = 0
KHA3 091621Z 32005KT 01/M05 A3043 RMK A01 T00121045  RH  065%=      5-min Rain = 0
KHA3 091622Z 32004KT 01/M05 A3043 RMK A01 T00131050  RH  063%=      5-min Rain = 0
KHA3 091623Z 32004KT 01/M05 A3043 RMK A01 T00131049  RH  063%=      5-min Rain = 0
KHA3 091624Z 33005KT 01/M05 A3043 RMK A01 T00131048  RH  064%=      5-min Rain = 0
KHA3 091625Z 33005KT 01/M05 A3043 RMK A01 T00131047  RH  064%=      5-min Rain = 0
KHA3 091626Z 34004KT 01/M05 A3043 RMK A01 T00131047  RH  064%=      5-min Rain = 0
KHA3 091627Z 33005KT 01/M05 A3043 RMK A01 T00141048  RH  063%=      5-min Rain = 0
KHA3 091628Z 33004KT 01/M05 A3043 RMK A01 T00141051  RH  062%=      5-min Rain = 0
KHA3 091629Z 32005KT 01/M05 A3043 RMK A01 T00141048  RH  063%=      5-min Rain = 0
KHA3 091630Z 32006KT 01/M05 A3043 RMK A01 T00141053  RH  061%=      5-min Rain = 0.01
KHA3 091631Z 33005KT 01/M05 A3043 RMK A01 T00141054  RH  060%=      5-min Rain = 0
KHA3 091632Z 34004KT 01/M05 A3043 RMK A01 T00141054  RH  061%=      5-min Rain = 0
KHA3 091633Z 32004KT 01/M05 A3043 RMK A01 T00141053  RH  061%=      5-min Rain = 0
KHA3 091634Z 32006KT 01/M05 A3043 RMK A01 T00141054  RH  061%=      5-min Rain = 0
KHA3 091635Z 33006KT 01/M05 A3043 RMK A01 T00141053  RH  061%=      5-min Rain = 0
KHA3 091636Z 33006KT 02/M05 A3043 RMK A01 T00151052  RH  061%=      5-min Rain = 0
KHA3 091637Z 33005KT 02/M05 A3043 RMK A01 T00151052  RH  061%=      5-min Rain = 0
KHA3 091638Z 33005KT 02/M05 A3042 RMK A01 T00161050  RH  061%=      5-min Rain = 0
KHA3 091639Z 31005KT 02/M05 A3042 RMK A01 T00161050  RH  062%=      5-min Rain = 0
KHA3 091640Z 32005KT 02/M05 A3042 RMK A01 T00161049  RH  062%=      5-min Rain = 0
KHA3 091641Z 32005KT 02/M05 A3042 RMK A01 T00161050  RH  061%=      5-min Rain = 0
KHA3 091642Z 32005KT 02/M05 A3042 RMK A01 T00161050  RH  062%=      5-min Rain = 0
KHA3 091643Z 31005KT 02/M05 A3042 RMK A01 T00161050  RH  062%=      5-min Rain = 0
KHA3 091644Z 31005KT 02/M05 A3042 RMK A01 T00171048  RH  062%=      5-min Rain = 0
KHA3 091645Z 31005KT 02/M05 A3042 RMK A01 T00171049  RH  062%=      5-min Rain = 0
KHA3 091646Z 32005KT 02/M05 A3042 RMK A01 T00171048  RH  062%=      5-min Rain = 0
KHA3 091647Z 33005KT 02/M05 A3042 RMK A01 T00181048  RH  062%=      5-min Rain = 0
KHA3 091648Z 33006KT 02/M05 A3042 RMK A01 T00191048  RH  061%=      5-min Rain = 0
KHA3 091649Z 32005KT 02/M05 A3042 RMK A01 T00191052  RH  059%=      5-min Rain = 0
KHA3 091650Z 33005KT 02/M05 A3042 RMK A01 T00191052  RH  060%=      5-min Rain = 0
KHA3 091651Z 34006KT 02/M05 A3042 RMK A01 T00191047  RH  061%=      5-min Rain = 0
KHA3 091652Z 34005KT 02/M05 A3042 RMK A01 T00201049  RH  060%=      5-min Rain = 0
KHA3 091653Z 34004KT 02/M05 A3042 RMK A01 T00201049  RH  060%=      5-min Rain = 0
KHA3 091654Z 32005KT 02/M05 A3042 RMK A01 T00201045  RH  062%=      5-min Rain = 0
KHA3 091655Z 31005KT 02/M05 A3042 RMK A01 T00211047  RH  061%=      5-min Rain = 0
KHA3 091656Z 30005KT 02/M05 A3042 RMK A01 T00211046  RH  061%=      5-min Rain = 0
KHA3 091657Z 31006KT 02/M05 A3042 RMK A01 T00211045  RH  062%=      5-min Rain = 0
KHA3 091658Z 30005KT 02/M05 A3042 RMK A01 T00221046  RH  061%=      5-min Rain = 0.01
KHA3 091659Z 30006KT 02/M04 A3042 RMK A01 T00221043  RH  062%=      5-min Rain = 0
KHA3 091700Z 31005KT 02/M05 A3042 RMK A01 T00221045  RH  061%=      5-min Rain = 0
KHA3 091701Z 31003KT 02/M05 A3042 RMK A01 T00221046  RH  061%=      5-min Rain = 0
KHA3 091702Z 29004KT 02/M04 A3042 RMK A01 T00221044  RH  062%=      5-min Rain = 0
KHA3 091703Z 29005KT 02/M04 A3042 RMK A01 T00231040  RH  063%=      5-min Rain = 0
KHA3 091704Z 32005KT 02/M04 A3042 RMK A01 T00231040  RH  063%=      5-min Rain = 0
KHA3 091705Z 33004KT 02/M04 A3042 RMK A01 T00231044  RH  062%=      5-min Rain = 0
KHA3 091706Z 32004KT 02/M04 A3042 RMK A01 T00241042  RH  062%=      5-min Rain = 0
KHA3 091707Z 31004KT 03/M04 A3042 RMK A01 T00251042  RH  061%=      5-min Rain = 0
KHA3 091708Z 29004KT 03/M04 A3042 RMK A01 T00251041  RH  062%=      5-min Rain = 0
KHA3 091709Z 31005KT 03/M04 A3042 RMK A01 T00251038  RH  063%=      5-min Rain = 0
KHA3 091710Z 31005KT 03/M04 A3042 RMK A01 T00251040  RH  062%=      5-min Rain = 0
KHA3 091711Z 31005KT 03/M04 A3042 RMK A01 T00251044  RH  060%=      5-min Rain = 0
KHA3 091712Z 32005KT 03/M05 A3042 RMK A01 T00251047  RH  059%=      5-min Rain = 0
KHA3 091713Z 31004KT 03/M05 A3042 RMK A01 T00251048  RH  059%=      5-min Rain = 0
KHA3 091714Z 30005KT 03/M05 A3042 RMK A01 T00251045  RH  060%=      5-min Rain = 0
KHA3 091715Z 30004KT 03/M05 A3042 RMK A01 T00251045  RH  060%=      5-min Rain = 0
KHA3 091716Z 31003KT 03/M05 A3042 RMK A01 T00251048  RH  059%=      5-min Rain = 0.01
KHA3 091717Z 31004KT 03/M05 A3042 RMK A01 T00251045  RH  060%=      5-min Rain = 0
KHA3 091718Z 31004KT 03/M04 A3042 RMK A01 T00261042  RH  061%=      5-min Rain = 0
KHA3 091719Z 28004KT 03/M04 A3042 RMK A01 T00271038  RH  063%=      5-min Rain = 0
KHA3 091720Z 29004KT 03/M04 A3042 RMK A01 T00271040  RH  061%=      5-min Rain = 0
KHA3 091721Z 29003KT 03/M04 A3041 RMK A01 T00281043  RH  059%=      5-min Rain = 0
KHA3 091722Z 31004KT 03/M04 A3041 RMK A01 T00281038  RH  062%=      5-min Rain = 0
KHA3 091723Z 32005KT 03/M04 A3041 RMK A01 T00301037  RH  061%=      5-min Rain = 0
KHA3 091724Z 30005KT 03/M04 A3041 RMK A01 T00311038  RH  060%=      5-min Rain = 0
KHA3 091725Z 29005KT 03/M04 A3041 RMK A01 T00311039  RH  060%=      5-min Rain = 0
KHA3 091726Z 32005KT 03/M04 A3041 RMK A01 T00311040  RH  060%=      5-min Rain = 0
KHA3 091727Z 32005KT 03/M05 A3041 RMK A01 T00311047  RH  057%=      5-min Rain = 0
KHA3 091728Z 32005KT 03/M05 A3041 RMK A01 T00311050  RH  055%=      5-min Rain = 0
KHA3 091729Z 32006KT 03/M05 A3041 RMK A01 T00321052  RH  054%=      5-min Rain = 0
KHA3 091730Z 32007KT 03/M06 A3041 RMK A01 T00321056  RH  052%=      5-min Rain = 0
KHA3 091731Z 32007KT 03/M05 A3041 RMK A01 T00331052  RH  054%=      5-min Rain = 0.01
KHA3 091732Z 33007KT 03/M05 A3041 RMK A01 T00341053  RH  053%=      5-min Rain = 0
KHA3 091733Z 33006KT 03/M05 A3041 RMK A01 T00331053  RH  053%=      5-min Rain = 0
KHA3 091734Z 34005KT 03/M05 A3041 RMK A01 T00331049  RH  055%=      5-min Rain = 0
KHA3 091735Z 34006KT 03/M05 A3041 RMK A01 T00341049  RH  054%=      5-min Rain = 0
KHA3 091736Z 32005KT 04/M05 A3041 RMK A01 T00351048  RH  055%=      5-min Rain = 0
KHA3 091737Z 33005KT 04/M04 A3041 RMK A01 T00351044  RH  056%=      5-min Rain = 0
KHA3 091738Z 33005KT 04/M04 A3041 RMK A01 T00361042  RH  057%=      5-min Rain = 0
KHA3 091739Z 34004KT 04/M04 A3041 RMK A01 T00371038  RH  058%=      5-min Rain = 0
KHA3 091740Z 34005KT 04/M04 A3041 RMK A01 T00381040  RH  057%=      5-min Rain = 0
KHA3 091741Z 34008KT 04/M05 A3041 RMK A01 T00381046  RH  054%=      5-min Rain = 0
KHA3 091742Z 34008KT 04/M05 A3041 RMK A01 T00371054  RH  051%=      5-min Rain = 0.01
KHA3 091743Z 34006KT 04/M06 A3041 RMK A01 T00371055  RH  051%=      5-min Rain = 0
KHA3 091744Z 35007KT 04/M06 A3041 RMK A01 T00371058  RH  050%=      5-min Rain = 0
KHA3 091745Z 34006KT 04/M05 A3041 RMK A01 T00371051  RH  053%=      5-min Rain = 0
KHA3 091746Z 34005KT 04/M05 A3041 RMK A01 T00371051  RH  052%=      5-min Rain = 0
KHA3 091747Z 34005KT 04/M06 A3041 RMK A01 T00381056  RH  050%=      5-min Rain = 0
KHA3 091748Z 35004KT 04/M05 A3041 RMK A01 T00381052  RH  052%=      5-min Rain = 0
KHA3 091749Z 35005KT 04/M05 A3041 RMK A01 T00391046  RH  054%=      5-min Rain = 0
KHA3 091750Z 30006KT 04/M05 A3041 RMK A01 T00391050  RH  052%=      5-min Rain = 0.01
KHA3 091751Z 31007KT 04/M04 A3041 RMK A01 T00381044  RH  055%=      5-min Rain = 0
KHA3 091752Z 31006KT 04/M05 A3041 RMK A01 T00381048  RH  053%=      5-min Rain = 0
KHA3 091753Z 31005KT 04/M05 A304 RMK A01 T00381054  RH  051%=      5-min Rain = 0
KHA3 091754Z 31005KT 04/M06 A304 RMK A01 T00371055  RH  051%=      5-min Rain = 0.01
KHA3 091755Z 35005KT 04/M05 A304 RMK A01 T00371051  RH  053%=      5-min Rain = 0.01
KHA3 091756Z 34005KT 04/M05 A304 RMK A01 T00381051  RH  052%=      5-min Rain = 0
KHA3 091757Z 31006KT 04/M05 A304 RMK A01 T00391046  RH  054%=      5-min Rain = 0.01
KHA3 091758Z 29006KT 04/M05 A304 RMK A01 T00391046  RH  054%=      5-min Rain = 0.01
KHA3 091759Z 29004KT 04/M05 A304 RMK A01 T00391051  RH  052%=      5-min Rain = 0
KHA3 091800Z 27003KT 04/M06 A304 RMK A01 T00381056  RH  050%=      5-min Rain = 0.01
KHA3 091801Z 30006KT 04/M05 A304 RMK A01 T00381049  RH  053%=      5-min Rain = 0
KHA3 091802Z 31006KT 04/M05 A304 RMK A01 T00391050  RH  052%=      5-min Rain = 0.01
KHA3 091803Z 33004KT 04/M05 A304 RMK A01 T00391052  RH  051%=      5-min Rain = 0
KHA3 091804Z 34003KT 04/M05 A304 RMK A01 T00401050  RH  052%=      5-min Rain = 0.01
KHA3 091805Z 32003KT 04/M05 A304 RMK A01 T00411054  RH  050%=      5-min Rain = 0
KHA3 091806Z 32006KT 04/M05 A304 RMK A01 T00411053  RH  050%=      5-min Rain = 0.01
KHA3 091807Z 33004KT 04/M05 A304 RMK A01 T00411053  RH  050%=      5-min Rain = 0
KHA3 091808Z 30005KT 04/M05 A304 RMK A01 T00411054  RH  050%=      5-min Rain = 0.01
KHA3 091809Z 29005KT 04/M05 A304 RMK A01 T00411050  RH  052%=      5-min Rain = 0.01
KHA3 091810Z 31006KT 04/M05 A304 RMK A01 T00411048  RH  052%=      5-min Rain = 0
KHA3 091811Z 32005KT 04/M05 A304 RMK A01 T00411051  RH  051%=      5-min Rain = 0.01
KHA3 091812Z 31004KT 04/M05 A304 RMK A01 T00411049  RH  052%=      5-min Rain = 0.01
KHA3 091813Z 31006KT 04/M05 A304 RMK A01 T00421049  RH  052%=      5-min Rain = 0
KHA3 091814Z 31005KT 04/M05 A3039 RMK A01 T00421051  RH  051%=      5-min Rain = 0.01
KHA3 091815Z 30005KT 04/M05 A3039 RMK A01 T00421046  RH  053%=      5-min Rain = 0
KHA3 091816Z 30006KT 04/M05 A3039 RMK A01 T00421047  RH  052%=      5-min Rain = 0.01
KHA3 091817Z 29006KT 04/M05 A3039 RMK A01 T00421051  RH  051%=      5-min Rain = 0
KHA3 091818Z 30006KT 04/M05 A3039 RMK A01 T00421051  RH  051%=      5-min Rain = 0
KHA3 091819Z 29006KT 04/M05 A3039 RMK A01 T00421051  RH  051%=      5-min Rain = 0
KHA3 091820Z 29006KT 04/M05 A3039 RMK A01 T00421053  RH  050%=      5-min Rain = 0
KHA3 091821Z 30007KT 04/M05 A3039 RMK A01 T00421050  RH  051%=      5-min Rain = 0
KHA3 091822Z 30006KT 04/M05 A3039 RMK A01 T00421051  RH  051%=      5-min Rain = 0
KHA3 091823Z 30005KT 04/M05 A3039 RMK A01 T00431051  RH  051%=      5-min Rain = 0
KHA3 091824Z 29005KT 04/M05 A3039 RMK A01 T00431048  RH  051%=      5-min Rain = 0
KHA3 091825Z 30007KT 04/M05 A3039 RMK A01 T00441045  RH  053%=      5-min Rain = 0
KHA3 091826Z 29006KT 04/M05 A3039 RMK A01 T00441047  RH  052%=      5-min Rain = 0
KHA3 091827Z 28005KT 04/M05 A3039 RMK A01 T00441048  RH  051%=      5-min Rain = 0
KHA3 091828Z 28007KT 04/M05 A3039 RMK A01 T00441052  RH  050%=      5-min Rain = 0
KHA3 091829Z 30006KT 04/M05 A3039 RMK A01 T00441054  RH  049%=      5-min Rain = 0
KHA3 091830Z 30007KT 04/M05 A3039 RMK A01 T00441050  RH  051%=      5-min Rain = 0
KHA3 091831Z 31005KT 04/M05 A3039 RMK A01 T00441053  RH  049%=      5-min Rain = 0
KHA3 091832Z 29005KT 05/M05 A3039 RMK A01 T00451046  RH  052%=      5-min Rain = 0
KHA3 091833Z 29005KT 05/M05 A3039 RMK A01 T00461048  RH  050%=      5-min Rain = 0
KHA3 091834Z 30006KT 05/M05 A3039 RMK A01 T00471046  RH  051%=      5-min Rain = 0
KHA3 091835Z 30006KT 05/M05 A3039 RMK A01 T00481051  RH  049%=      5-min Rain = 0
KHA3 091836Z 32007KT 05/M05 A3039 RMK A01 T00481047  RH  050%=      5-min Rain = 0
KHA3 091837Z 32005KT 05/M05 A3039 RMK A01 T00481047  RH  050%=      5-min Rain = 0
KHA3 091838Z 31005KT 05/M05 A3039 RMK A01 T00491048  RH  050%=      5-min Rain = 0
KHA3 091839Z 28004KT 05/M05 A3039 RMK A01 T00481052  RH  048%=      5-min Rain = 0
KHA3 091840Z 28004KT 05/M05 A3039 RMK A01 T00481054  RH  048%=      5-min Rain = 0
KHA3 091841Z 29004KT 05/M05 A3039 RMK A01 T00481052  RH  048%=      5-min Rain = 0
KHA3 091842Z 28006KT 05/M05 A3039 RMK A01 T00481054  RH  048%=      5-min Rain = 0
KHA3 091843Z 29007KT 05/M05 A3039 RMK A01 T00481053  RH  048%=      5-min Rain = 0
KHA3 091844Z 29006KT 05/M05 A3038 RMK A01 T00471052  RH  048%=      5-min Rain = 0
KHA3 091845Z 31006KT 05/M05 A3038 RMK A01 T00471051  RH  049%=      5-min Rain = 0
KHA3 091846Z 33004KT 05/M05 A3038 RMK A01 T00471051  RH  049%=      5-min Rain = 0
KHA3 091847Z 32005KT 05/M05 A3038 RMK A01 T00491049  RH  049%=      5-min Rain = 0
KHA3 091848Z 32005KT 05/M05 A3038 RMK A01 T00501050  RH  048%=      5-min Rain = 0
KHA3 091849Z 34004KT 05/M05 A3038 RMK A01 T00501052  RH  048%=      5-min Rain = 0
KHA3 091850Z 35005KT 05/M06 A3038 RMK A01 T00501057  RH  046%=      5-min Rain = 0
KHA3 091851Z 34004KT 05/M06 A3038 RMK A01 T00501062  RH  044%=      5-min Rain = 0
KHA3 091852Z 32004KT 05/M06 A3038 RMK A01 T00511060  RH  045%=      5-min Rain = 0
KHA3 091853Z 30006KT 05/M05 A3038 RMK A01 T00521053  RH  047%=      5-min Rain = 0
KHA3 091854Z 29007KT 05/M05 A3038 RMK A01 T00521049  RH  048%=      5-min Rain = 0
KHA3 091855Z 29006KT 05/M05 A3038 RMK A01 T00511051  RH  048%=      5-min Rain = 0
KHA3 091856Z 30005KT 05/M06 A3038 RMK A01 T00511056  RH  046%=      5-min Rain = 0
KHA3 091857Z 30007KT 05/M05 A3038 RMK A01 T00511049  RH  048%=      5-min Rain = 0
KHA3 091858Z 31005KT 05/M05 A3038 RMK A01 T00511051  RH  048%=      5-min Rain = 0
KHA3 091859Z 32004KT 05/M05 A3038 RMK A01 T00521050  RH  048%=      5-min Rain = 0
KHA3 091900Z 30005KT 05/M05 A3038 RMK A01 T00531045  RH  049%=      5-min Rain = 0
KHA3 091901Z 30006KT 05/M05 A3038 RMK A01 T00531049  RH  048%=      5-min Rain = 0
KHA3 091902Z 34005KT 05/M05 A3038 RMK A01 T00531049  RH  048%=      5-min Rain = 0
KHA3 091903Z 36005KT 05/M05 A3037 RMK A01 T00541052  RH  046%=      5-min Rain = 0
KHA3 091904Z 35004KT 05/M06 A3037 RMK A01 T00541055  RH  045%=      5-min Rain = 0
KHA3 091905Z 00003KT 05/M06 A3037 RMK A01 T00541059  RH  044%=      5-min Rain = 0
KHA3 091906Z 31003KT 05/M06 A3037 RMK A01 T00541058  RH  044%=      5-min Rain = 0
KHA3 091907Z 29005KT 06/M06 A3037 RMK A01 T00551055  RH  045%=      5-min Rain = 0
KHA3 091908Z 30006KT 06/M05 A3037 RMK A01 T00551049  RH  047%=      5-min Rain = 0
KHA3 091909Z 31005KT 06/M04 A3037 RMK A01 T00551042  RH  050%=      5-min Rain = 0
KHA3 091910Z 34004KT 06/M05 A3037 RMK A01 T00561047  RH  048%=      5-min Rain = 0
KHA3 091911Z 29003KT 06/M06 A3037 RMK A01 T00561056  RH  044%=      5-min Rain = 0
KHA3 091912Z 32004KT 06/M05 A3037 RMK A01 T00561053  RH  045%=      5-min Rain = 0
KHA3 091913Z 30003KT 06/M06 A3037 RMK A01 T00561055  RH  045%=      5-min Rain = 0
KHA3 091914Z 29006KT 06/M05 A3037 RMK A01 T00571045  RH  048%=      5-min Rain = 0
KHA3 091915Z 30007KT 06/M05 A3037 RMK A01 T00581048  RH  047%=      5-min Rain = 0
KHA3 091916Z 31007KT 06/M05 A3037 RMK A01 T00571054  RH  045%=      5-min Rain = 0
KHA3 091917Z 32005KT 06/M06 A3037 RMK A01 T00551060  RH  043%=      5-min Rain = 0
KHA3 091918Z 31005KT 06/M06 A3037 RMK A01 T00551057  RH  044%=      5-min Rain = 0
KHA3 091919Z 32004KT 06/M06 A3037 RMK A01 T00551062  RH  043%=      5-min Rain = 0
KHA3 091920Z 33002KT 06/M07 A3037 RMK A01 T00561069  RH  040%=      5-min Rain = 0
KHA3 091921Z 31003KT 06/M06 A3037 RMK A01 T00561064  RH  042%=      5-min Rain = 0
KHA3 091922Z 31007KT 06/M06 A3037 RMK A01 T00571056  RH  044%=      5-min Rain = 0
KHA3 091923Z 32005KT 06/M06 A3037 RMK A01 T00571058  RH  043%=      5-min Rain = 0
KHA3 091924Z 30004KT 06/M06 A3037 RMK A01 T00571058  RH  043%=      5-min Rain = 0
KHA3 091925Z 32004KT 06/M06 A3037 RMK A01 T00571061  RH  042%=      5-min Rain = 0
KHA3 091926Z 32003KT 06/M06 A3037 RMK A01 T00571058  RH  043%=      5-min Rain = 0
KHA3 091927Z 31004KT 06/M06 A3037 RMK A01 T00581057  RH  043%=      5-min Rain = 0
KHA3 091928Z 29005KT 06/M06 A3036 RMK A01 T00581056  RH  044%=      5-min Rain = 0
KHA3 091929Z 28004KT 06/M06 A3036 RMK A01 T00591060  RH  042%=      5-min Rain = 0
KHA3 091930Z 28004KT 06/M06 A3036 RMK A01 T00581061  RH  042%=      5-min Rain = 0
KHA3 091931Z 27003KT 06/M06 A3036 RMK A01 T00581058  RH  043%=      5-min Rain = 0
KHA3 091932Z 28005KT 06/M06 A3036 RMK A01 T00581056  RH  044%=      5-min Rain = 0
KHA3 091933Z 27004KT 06/M05 A3036 RMK A01 T00591053  RH  045%=      5-min Rain = 0
KHA3 091934Z 28003KT 06/M06 A3036 RMK A01 T00591058  RH  043%=      5-min Rain = 0
KHA3 091935Z 28003KT 06/M05 A3036 RMK A01 T00591054  RH  044%=      5-min Rain = 0
KHA3 091936Z 31006KT 06/M05 A3036 RMK A01 T00601052  RH  044%=      5-min Rain = 0
KHA3 091937Z 32007KT 06/M05 A3036 RMK A01 T00601052  RH  044%=      5-min Rain = 0
KHA3 091938Z 33006KT 06/M06 A3036 RMK A01 T00611058  RH  042%=      5-min Rain = 0
KHA3 091939Z 33006KT 06/M06 A3036 RMK A01 T00601059  RH  042%=      5-min Rain = 0
KHA3 091940Z 32005KT 06/M06 A3036 RMK A01 T00601057  RH  043%=      5-min Rain = 0
KHA3 091941Z 33005KT 06/M06 A3036 RMK A01 T00601057  RH  043%=      5-min Rain = 0
KHA3 091942Z 32004KT 06/M06 A3035 RMK A01 T00601057  RH  043%=      5-min Rain = 0
KHA3 091943Z 30005KT 06/M06 A3035 RMK A01 T00611058  RH  042%=      5-min Rain = 0
KHA3 091944Z 29005KT 06/M06 A3035 RMK A01 T00611055  RH  043%=      5-min Rain = 0
KHA3 091945Z 28004KT 06/M06 A3035 RMK A01 T00611059  RH  042%=      5-min Rain = 0
KHA3 091946Z 29006KT 06/M06 A3035 RMK A01 T00611057  RH  043%=      5-min Rain = 0
KHA3 091947Z 29006KT 06/M06 A3036 RMK A01 T00611056  RH  043%=      5-min Rain = 0
KHA3 091948Z 29006KT 06/M05 A3036 RMK A01 T00611054  RH  043%=      5-min Rain = 0
KHA3 091949Z 29006KT 06/M06 A3036 RMK A01 T00611055  RH  043%=      5-min Rain = 0
KHA3 091950Z 30006KT 06/M06 A3036 RMK A01 T00611057  RH  043%=      5-min Rain = 0
KHA3 091951Z 30007KT 06/M05 A3036 RMK A01 T00611049  RH  045%=      5-min Rain = 0
KHA3 091952Z 30007KT 06/M05 A3036 RMK A01 T00621050  RH  044%=      5-min Rain = 0
KHA3 091953Z 29008KT 06/M06 A3036 RMK A01 T00621055  RH  043%=      5-min Rain = 0
KHA3 091954Z 30006KT 06/M05 A3036 RMK A01 T00621051  RH  044%=      5-min Rain = 0
KHA3 091955Z 30006KT 06/M05 A3036 RMK A01 T00621046  RH  046%=      5-min Rain = 0
KHA3 091956Z 28006KT 06/M05 A3035 RMK A01 T00621054  RH  043%=      5-min Rain = 0
KHA3 091957Z 30005KT 06/M06 A3035 RMK A01 T00621062  RH  041%=      5-min Rain = 0
KHA3 091958Z 29008KT 06/M05 A3035 RMK A01 T00621054  RH  043%=      5-min Rain = 0
KHA3 091959Z 30008KT 06/M05 A3035 RMK A01 T00631048  RH  045%=      5-min Rain = 0
KHA3 092000Z 29006KT 06/M06 A3035 RMK A01 T00631055  RH  042%=      5-min Rain = 0
KHA3 092001Z 29007KT 06/M05 A3035 RMK A01 T00641049  RH  044%=      5-min Rain = 0
KHA3 092002Z 28006KT 06/M05 A3035 RMK A01 T00641054  RH  043%=      5-min Rain = 0
KHA3 092003Z 28008KT 06/M05 A3035 RMK A01 T00641050  RH  044%=      5-min Rain = 0
KHA3 092004Z 28007KT 06/M05 A3035 RMK A01 T00641053  RH  043%=      5-min Rain = 0
KHA3 092005Z 28008KT 06/M05 A3035 RMK A01 T00631053  RH  043%=      5-min Rain = 0
KHA3 092006Z 29007KT 06/M05 A3035 RMK A01 T00641054  RH  043%=      5-min Rain = 0
KHA3 092007Z 29005KT 06/M06 A3035 RMK A01 T00631057  RH  042%=      5-min Rain = 0
KHA3 092008Z 29006KT 06/M05 A3035 RMK A01 T00631053  RH  043%=      5-min Rain = 0
KHA3 092009Z 28005KT 06/M06 A3035 RMK A01 T00641055  RH  042%=      5-min Rain = 0
KHA3 092010Z 29006KT 06/M06 A3035 RMK A01 T00641057  RH  042%=      5-min Rain = 0
KHA3 092011Z 30007KT 07/M05 A3035 RMK A01 T00651052  RH  043%=      5-min Rain = 0
KHA3 092012Z 30004KT 07/M05 A3035 RMK A01 T00651054  RH  042%=      5-min Rain = 0
KHA3 092013Z 28005KT 07/M04 A3035 RMK A01 T00651044  RH  045%=      5-min Rain = 0
KHA3 092014Z 28006KT 07/M04 A3035 RMK A01 T00671041  RH  046%=      5-min Rain = 0
KHA3 092015Z 29008KT 07/M04 A3035 RMK A01 T00681044  RH  044%=      5-min Rain = 0
KHA3 092016Z 31006KT 07/M05 A3035 RMK A01 T00681045  RH  044%=      5-min Rain = 0
KHA3 092017Z 29006KT 07/M05 A3035 RMK A01 T00681048  RH  043%=      5-min Rain = 0
KHA3 092018Z 29006KT 07/M05 A3035 RMK A01 T00681052  RH  042%=      5-min Rain = 0
KHA3 092019Z 31007KT 07/M05 A3035 RMK A01 T00681049  RH  043%=      5-min Rain = 0
KHA3 092020Z 32007KT 07/M05 A3035 RMK A01 T00681047  RH  044%=      5-min Rain = 0
KHA3 092021Z 33007KT 07/M05 A3035 RMK A01 T00681049  RH  043%=      5-min Rain = 0
KHA3 092022Z 33005KT 07/M05 A3035 RMK A01 T00681053  RH  042%=      5-min Rain = 0
KHA3 092023Z 31006KT 07/M05 A3035 RMK A01 T00681047  RH  044%=      5-min Rain = 0
KHA3 092024Z 33006KT 07/M05 A3035 RMK A01 T00681047  RH  044%=      5-min Rain = 0
KHA3 092025Z 31006KT 07/M05 A3035 RMK A01 T00691049  RH  043%=      5-min Rain = 0
KHA3 092026Z 30007KT 07/M05 A3035 RMK A01 T00691049  RH  043%=      5-min Rain = 0
KHA3 092027Z 30007KT 07/M05 A3035 RMK A01 T00691054  RH  041%=      5-min Rain = 0
KHA3 092028Z 30006KT 07/M05 A3035 RMK A01 T00691049  RH  043%=      5-min Rain = 0
KHA3 092029Z 30005KT 07/M05 A3035 RMK A01 T00691052  RH  042%=      5-min Rain = 0
KHA3 092030Z 32006KT 07/M05 A3035 RMK A01 T00681054  RH  041%=      5-min Rain = 0
KHA3 092031Z 33004KT 07/M05 A3035 RMK A01 T00681054  RH  041%=      5-min Rain = 0
KHA3 092032Z 32004KT 07/M06 A3035 RMK A01 T00681060  RH  040%=      5-min Rain = 0
KHA3 092033Z 30006KT 07/M06 A3035 RMK A01 T00691056  RH  041%=      5-min Rain = 0
KHA3 092034Z 30007KT 07/M05 A3035 RMK A01 T00691047  RH  043%=      5-min Rain = 0
KHA3 092035Z 30007KT 07/M04 A3035 RMK A01 T00701042  RH  045%=      5-min Rain = 0
KHA3 092036Z 31007KT 07/M05 A3035 RMK A01 T00711045  RH  044%=      5-min Rain = 0
KHA3 092037Z 32007KT 07/M05 A3035 RMK A01 T00711049  RH  042%=      5-min Rain = 0
KHA3 092038Z 30007KT 07/M04 A3035 RMK A01 T00701042  RH  045%=      5-min Rain = 0
KHA3 092039Z 29008KT 07/M04 A3035 RMK A01 T00711044  RH  044%=      5-min Rain = 0
KHA3 092040Z 29005KT 07/M04 A3035 RMK A01 T00711042  RH  045%=      5-min Rain = 0
KHA3 092041Z 29005KT 07/M05 A3035 RMK A01 T00711049  RH  042%=      5-min Rain = 0
KHA3 092042Z 28006KT 07/M05 A3035 RMK A01 T00711051  RH  042%=      5-min Rain = 0
KHA3 092043Z 29007KT 07/M05 A3035 RMK A01 T00701054  RH  041%=      5-min Rain = 0
KHA3 092044Z 30007KT 07/M05 A3035 RMK A01 T00701051  RH  042%=      5-min Rain = 0
KHA3 092045Z 29006KT 07/M06 A3035 RMK A01 T00711055  RH  040%=      5-min Rain = 0
KHA3 092046Z 31007KT 07/M04 A3035 RMK A01 T00711043  RH  044%=      5-min Rain = 0
KHA3 092047Z 31007KT 07/M04 A3035 RMK A01 T00721041  RH  044%=      5-min Rain = 0
KHA3 092048Z 30006KT 07/M06 A3035 RMK A01 T00721055  RH  040%=      5-min Rain = 0
KHA3 092049Z 31006KT 07/M06 A3035 RMK A01 T00711055  RH  040%=      5-min Rain = 0
KHA3 092050Z 32005KT 07/M05 A3035 RMK A01 T00711049  RH  042%=      5-min Rain = 0
KHA3 092051Z 31004KT 07/M05 A3035 RMK A01 T00711054  RH  041%=      5-min Rain = 0
KHA3 092052Z 30007KT 07/M05 A3035 RMK A01 T00711050  RH  042%=      5-min Rain = 0
KHA3 092053Z 29006KT 07/M04 A3035 RMK A01 T00721043  RH  044%=      5-min Rain = 0
KHA3 092054Z 29006KT 07/M05 A3035 RMK A01 T00731046  RH  043%=      5-min Rain = 0
KHA3 092055Z 29006KT 07/M04 A3035 RMK A01 T00731041  RH  044%=      5-min Rain = 0
KHA3 092056Z 29008KT 07/M05 A3035 RMK A01 T00741051  RH  041%=      5-min Rain = 0
KHA3 092057Z 29007KT 07/M05 A3035 RMK A01 T00731052  RH  041%=      5-min Rain = 0
KHA3 092058Z 29006KT 07/M05 A3035 RMK A01 T00721047  RH  042%=      5-min Rain = 0
KHA3 092059Z 29005KT 07/M05 A3035 RMK A01 T00731048  RH  042%=      5-min Rain = 0
KHA3 092100Z 27006KT 07/M05 A3035 RMK A01 T00741048  RH  042%=      5-min Rain = 0
KHA3 092101Z 27005KT 07/M05 A3035 RMK A01 T00741052  RH  040%=      5-min Rain = 0
KHA3 092102Z 26004KT 07/M05 A3035 RMK A01 T00731054  RH  040%=      5-min Rain = 0
KHA3 092103Z 28005KT 07/M05 A3035 RMK A01 T00741054  RH  040%=      5-min Rain = 0
KHA3 092104Z 28004KT 07/M05 A3035 RMK A01 T00741054  RH  040%=      5-min Rain = 0
KHA3 092105Z 28005KT 07/M05 A3035 RMK A01 T00741051  RH  041%=      5-min Rain = 0
KHA3 092106Z 28006KT 07/M05 A3035 RMK A01 T00741051  RH  041%=      5-min Rain = 0
KHA3 092107Z 26006KT 08/M04 A3035 RMK A01 T00761042  RH  043%=      5-min Rain = 0
KHA3 092108Z 28006KT 08/M04 A3035 RMK A01 T00761040  RH  043%=      5-min Rain = 0
KHA3 092109Z 28006KT 08/M05 A3035 RMK A01 T00761050  RH  040%=      5-min Rain = 0
KHA3 092110Z 27006KT 08/M06 A3035 RMK A01 T00751055  RH  039%=      5-min Rain = 0
KHA3 092111Z 27004KT 08/M06 A3035 RMK A01 T00751055  RH  039%=      5-min Rain = 0
KHA3 092112Z 28004KT 08/M06 A3035 RMK A01 T00751060  RH  038%=      5-min Rain = 0
KHA3 092113Z 26006KT 08/M05 A3035 RMK A01 T00751052  RH  040%=      5-min Rain = 0
KHA3 092114Z 27006KT 08/M06 A3035 RMK A01 T00761055  RH  039%=      5-min Rain = 0
KHA3 092115Z 27007KT 08/M05 A3035 RMK A01 T00761053  RH  040%=      5-min Rain = 0
KHA3 092116Z 26006KT 08/M06 A3035 RMK A01 T00751055  RH  039%=      5-min Rain = 0
KHA3 092117Z 27006KT 08/M06 A3035 RMK A01 T00751058  RH  038%=      5-min Rain = 0
KHA3 092118Z 28005KT 08/M05 A3035 RMK A01 T00751046  RH  042%=      5-min Rain = 0
KHA3 092119Z 30005KT 08/M05 A3035 RMK A01 T00761046  RH  042%=      5-min Rain = 0
KHA3 092120Z 31005KT 08/M06 A3035 RMK A01 T00771057  RH  038%=      5-min Rain = 0
KHA3 092121Z 30004KT 08/M06 A3035 RMK A01 T00771059  RH  037%=      5-min Rain = 0
KHA3 092122Z 28006KT 08/M05 A3035 RMK A01 T00771053  RH  039%=      5-min Rain = 0
KHA3 092123Z 28007KT 08/M05 A3035 RMK A01 T00781047  RH  041%=      5-min Rain = 0
KHA3 092124Z 28006KT 08/M05 A3035 RMK A01 T00771045  RH  041%=      5-min Rain = 0
KHA3 092125Z 29006KT 08/M05 A3035 RMK A01 T00761050  RH  040%=      5-min Rain = 0
KHA3 092126Z 30005KT 08/M04 A3035 RMK A01 T00771038  RH  044%=      5-min Rain = 0
KHA3 092127Z 28004KT 08/M05 A3035 RMK A01 T00781046  RH  041%=      5-min Rain = 0
KHA3 092128Z 29004KT 08/M06 A3035 RMK A01 T00781055  RH  038%=      5-min Rain = 0
KHA3 092129Z 28005KT 08/M07 A3035 RMK A01 T00781065  RH  036%=      5-min Rain = 0
KHA3 092130Z 27005KT 08/M06 A3035 RMK A01 T00771061  RH  037%=      5-min Rain = 0
KHA3 092131Z 27007KT 08/M05 A3035 RMK A01 T00771048  RH  041%=      5-min Rain = 0
KHA3 092132Z 29009KT 08/M05 A3035 RMK A01 T00771046  RH  041%=      5-min Rain = 0
KHA3 092133Z 30006KT 08/M06 A3035 RMK A01 T00771056  RH  038%=      5-min Rain = 0
KHA3 092134Z 30006KT 08/M06 A3035 RMK A01 T00761057  RH  038%=      5-min Rain = 0
KHA3 092135Z 27005KT 08/M05 A3035 RMK A01 T00761049  RH  041%=      5-min Rain = 0
KHA3 092136Z 27005KT 08/M05 A3035 RMK A01 T00771048  RH  041%=      5-min Rain = 0
KHA3 092137Z 29004KT 08/M06 A3035 RMK A01 T00771055  RH  039%=      5-min Rain = 0
KHA3 092138Z 30005KT 08/M05 A3035 RMK A01 T00781047  RH  041%=      5-min Rain = 0
KHA3 092139Z 28006KT 08/M05 A3035 RMK A01 T00781047  RH  041%=      5-min Rain = 0
KHA3 092140Z 27005KT 08/M05 A3035 RMK A01 T00791049  RH  040%=      5-min Rain = 0
KHA3 092141Z 27005KT 08/M05 A3035 RMK A01 T00791046  RH  041%=      5-min Rain = 0
KHA3 092142Z 27006KT 08/M04 A3035 RMK A01 T00801044  RH  041%=      5-min Rain = 0
KHA3 092143Z 26006KT 08/M05 A3035 RMK A01 T00791053  RH  039%=      5-min Rain = 0
KHA3 092144Z 26005KT 08/M06 A3035 RMK A01 T00791060  RH  037%=      5-min Rain = 0
KHA3 092145Z 26004KT 08/M06 A3035 RMK A01 T00781063  RH  036%=      5-min Rain = 0
KHA3 092146Z 25003KT 08/M05 A3035 RMK A01 T00781054  RH  039%=      5-min Rain = 0
KHA3 092147Z 26003KT 08/M05 A3035 RMK A01 T00781053  RH  039%=      5-min Rain = 0
KHA3 092148Z 28005KT 08/M05 A3035 RMK A01 T00791053  RH  039%=      5-min Rain = 0
KHA3 092149Z 29005KT 08/M06 A3035 RMK A01 T00791057  RH  038%=      5-min Rain = 0
KHA3 092150Z 29005KT 08/M06 A3035 RMK A01 T00791056  RH  038%=      5-min Rain = 0
KHA3 092151Z 29005KT 08/M06 A3035 RMK A01 T00791060  RH  037%=      5-min Rain = 0
KHA3 092152Z 28005KT 08/M06 A3035 RMK A01 T00781056  RH  038%=      5-min Rain = 0
KHA3 092153Z 28005KT 08/M06 A3035 RMK A01 T00791055  RH  038%=      5-min Rain = 0
KHA3 092154Z 27004KT 08/M06 A3035 RMK A01 T00791064  RH  036%=      5-min Rain = 0
KHA3 092155Z 28005KT 08/M05 A3035 RMK A01 T00791054  RH  038%=      5-min Rain = 0
KHA3 092156Z 27006KT 08/M06 A3035 RMK A01 T00791057  RH  038%=      5-min Rain = 0
KHA3 092157Z 28005KT 08/M06 A3035 RMK A01 T00791062  RH  036%=      5-min Rain = 0
KHA3 092158Z 28005KT 08/M06 A3035 RMK A01 T00791062  RH  036%=      5-min Rain = 0
KHA3 092159Z 28005KT 08/M06 A3035 RMK A01 T00791059  RH  037%=      5-min Rain = 0
KHA3 092200Z 28006KT 08/M05 A3035 RMK A01 T00791052  RH  039%=      5-min Rain = 0
KHA3 092201Z 29005KT 08/M06 A3035 RMK A01 T00801056  RH  038%=      5-min Rain = 0
KHA3 092202Z 27006KT 08/M05 A3035 RMK A01 T00801049  RH  040%=      5-min Rain = 0
KHA3 092203Z 27006KT 08/M05 A3035 RMK A01 T00801053  RH  039%=      5-min Rain = 0
KHA3 092204Z 28005KT 08/M04 A3035 RMK A01 T00791042  RH  042%=      5-min Rain = 0
KHA3 092205Z 28006KT 08/M04 A3035 RMK A01 T00801044  RH  041%=      5-min Rain = 0
KHA3 092206Z 29005KT 08/M05 A3035 RMK A01 T00801053  RH  039%=      5-min Rain = 0
KHA3 092207Z 28006KT 08/M05 A3035 RMK A01 T00791052  RH  039%=      5-min Rain = 0
KHA3 092208Z 28006KT 08/M06 A3035 RMK A01 T00801056  RH  038%=      5-min Rain = 0
KHA3 092209Z 27006KT 08/M05 A3035 RMK A01 T00791054  RH  038%=      5-min Rain = 0
KHA3 092210Z 28007KT 08/M05 A3035 RMK A01 T00791049  RH  040%=      5-min Rain = 0
KHA3 092211Z 29006KT 08/M06 A3035 RMK A01 T00791060  RH  037%=      5-min Rain = 0
KHA3 092212Z 29005KT 08/M06 A3035 RMK A01 T00791057  RH  038%=      5-min Rain = 0
KHA3 092213Z 29006KT 08/M05 A3035 RMK A01 T00791048  RH  040%=      5-min Rain = 0
KHA3 092214Z 28005KT 08/M05 A3035 RMK A01 T00791047  RH  040%=      5-min Rain = 0
KHA3 092215Z 29006KT 08/M05 A3035 RMK A01 T00791053  RH  039%=      5-min Rain = 0
KHA3 092216Z 29006KT 08/M06 A3035 RMK A01 T00801058  RH  037%=      5-min Rain = 0
KHA3 092217Z 28005KT 08/M06 A3035 RMK A01 T00801056  RH  038%=      5-min Rain = 0
KHA3 092218Z 30007KT 08/M05 A3035 RMK A01 T00791050  RH  039%=      5-min Rain = 0
KHA3 092219Z 30007KT 08/M05 A3035 RMK A01 T00791049  RH  040%=      5-min Rain = 0
KHA3 092220Z 30006KT 08/M06 A3035 RMK A01 T00791057  RH  037%=      5-min Rain = 0
KHA3 092221Z 31007KT 08/M06 A3035 RMK A01 T00791056  RH  038%=      5-min Rain = 0
KHA3 092222Z 30005KT 08/M05 A3035 RMK A01 T00791054  RH  039%=      5-min Rain = 0
KHA3 092223Z 29004KT 08/M06 A3035 RMK A01 T00781055  RH  038%=      5-min Rain = 0
KHA3 092224Z 29006KT 08/M05 A3035 RMK A01 T00781052  RH  039%=      5-min Rain = 0
KHA3 092225Z 29005KT 08/M06 A3035 RMK A01 T00791056  RH  038%=      5-min Rain = 0
KHA3 092226Z 29004KT 08/M05 A3035 RMK A01 T00791053  RH  039%=      5-min Rain = 0
KHA3 092227Z 28005KT 08/M05 A3035 RMK A01 T00791051  RH  039%=      5-min Rain = 0
KHA3 092228Z 29006KT 08/M05 A3035 RMK A01 T00791047  RH  040%=      5-min Rain = 0
KHA3 092229Z 28005KT 08/M05 A3035 RMK A01 T00791051  RH  039%=      5-min Rain = 0
KHA3 092230Z 28004KT 08/M05 A3035 RMK A01 T00781045  RH  041%=      5-min Rain = 0
KHA3 092231Z 28004KT 08/M04 A3035 RMK A01 T00781041  RH  043%=      5-min Rain = 0
KHA3 092232Z 27004KT 08/M04 A3035 RMK A01 T00781044  RH  042%=      5-min Rain = 0
KHA3 092233Z 27004KT 08/M05 A3035 RMK A01 T00781047  RH  041%=      5-min Rain = 0
KHA3 092234Z 27004KT 08/M05 A3035 RMK A01 T00781052  RH  039%=      5-min Rain = 0
KHA3 092235Z 28004KT 08/M05 A3035 RMK A01 T00781050  RH  040%=      5-min Rain = 0
KHA3 092236Z 29003KT 08/M05 A3035 RMK A01 T00781046  RH  041%=      5-min Rain = 0
KHA3 092237Z 30003KT 08/M04 A3035 RMK A01 T00781041  RH  043%=      5-min Rain = 0
KHA3 092238Z 30004KT 08/M05 A3035 RMK A01 T00781051  RH  040%=      5-min Rain = 0
KHA3 092239Z 31003KT 08/M05 A3035 RMK A01 T00791052  RH  039%=      5-min Rain = 0
KHA3 092240Z 31004KT 08/M05 A3035 RMK A01 T00781046  RH  041%=      5-min Rain = 0
KHA3 092241Z 29003KT 08/M05 A3035 RMK A01 T00781049  RH  040%=      5-min Rain = 0
KHA3 092242Z 28004KT 08/M05 A3035 RMK A01 T00781045  RH  041%=      5-min Rain = 0
KHA3 092243Z 28004KT 08/M05 A3035 RMK A01 T00781051  RH  040%=      5-min Rain = 0
KHA3 092244Z 27004KT 08/M05 A3035 RMK A01 T00781052  RH  039%=      5-min Rain = 0
KHA3 092245Z 28004KT 08/M04 A3035 RMK A01 T00781041  RH  043%=      5-min Rain = 0
KHA3 092246Z 28004KT 08/M04 A3035 RMK A01 T00771040  RH  043%=      5-min Rain = 0
KHA3 092247Z 29005KT 08/M04 A3035 RMK A01 T00771037  RH  044%=      5-min Rain = 0
KHA3 092248Z 29005KT 08/M04 A3035 RMK A01 T00761041  RH  043%=      5-min Rain = 0
KHA3 092249Z 29005KT 08/M04 A3035 RMK A01 T00761042  RH  043%=      5-min Rain = 0
KHA3 092250Z 29005KT 08/M04 A3035 RMK A01 T00751044  RH  043%=      5-min Rain = 0
KHA3 092251Z 29005KT 08/M04 A3035 RMK A01 T00751041  RH  043%=      5-min Rain = 0
KHA3 092252Z 29005KT 07/M04 A3035 RMK A01 T00741041  RH  044%=      5-min Rain = 0
KHA3 092253Z 29004KT 07/M04 A3035 RMK A01 T00741039  RH  044%=      5-min Rain = 0
KHA3 092254Z 29004KT 07/M04 A3035 RMK A01 T00741038  RH  045%=      5-min Rain = 0
KHA3 092255Z 29005KT 07/M04 A3035 RMK A01 T00741038  RH  045%=      5-min Rain = 0
KHA3 092256Z 29005KT 07/M04 A3035 RMK A01 T00731039  RH  045%=      5-min Rain = 0
KHA3 092257Z 29005KT 07/M04 A3035 RMK A01 T00731041  RH  044%=      5-min Rain = 0
KHA3 092258Z 28005KT 07/M04 A3035 RMK A01 T00721037  RH  046%=      5-min Rain = 0
KHA3 092259Z 28005KT 07/M04 A3035 RMK A01 T00711036  RH  046%=      5-min Rain = 0
KHA3 092300Z 26005KT 07/M03 A3035 RMK A01 T00711032  RH  048%=      5-min Rain = 0
KHA3 092301Z 25005KT 07/M03 A3035 RMK A01 T00701033  RH  048%=      5-min Rain = 0
KHA3 092302Z 25005KT 07/M03 A3035 RMK A01 T00691028  RH  050%=      5-min Rain = 0
KHA3 092303Z 25005KT 07/M03 A3035 RMK A01 T00681025  RH  052%=      5-min Rain = 0
KHA3 092304Z 24005KT 07/M03 A3035 RMK A01 T00671026  RH  052%=      5-min Rain = 0
KHA3 092305Z 25005KT 07/M03 A3035 RMK A01 T00661030  RH  050%=      5-min Rain = 0
KHA3 092306Z 24005KT 07/M03 A3035 RMK A01 T00661027  RH  052%=      5-min Rain = 0
KHA3 092307Z 24004KT 07/M03 A3035 RMK A01 T00651027  RH  052%=      5-min Rain = 0
KHA3 092308Z 24004KT 07/M03 A3035 RMK A01 T00651025  RH  053%=      5-min Rain = 0
KHA3 092309Z 24004KT 06/M03 A3035 RMK A01 T00641025  RH  053%=      5-min Rain = 0
KHA3 092310Z 24004KT 06/M03 A3035 RMK A01 T00641026  RH  053%=      5-min Rain = 0
KHA3 092311Z 24005KT 06/M03 A3034 RMK A01 T00641026  RH  053%=      5-min Rain = 0
KHA3 092312Z 24005KT 06/M03 A3034 RMK A01 T00631025  RH  053%=      5-min Rain = 0
KHA3 092313Z 24006KT 06/M03 A3035 RMK A01 T00621027  RH  053%=      5-min Rain = 0
KHA3 092314Z 24006KT 06/M03 A3035 RMK A01 T00621026  RH  053%=      5-min Rain = 0
KHA3 092315Z 24006KT 06/M03 A3035 RMK A01 T00611027  RH  053%=      5-min Rain = 0
KHA3 092316Z 24006KT 06/M03 A3035 RMK A01 T00611029  RH  053%=      5-min Rain = 0
KHA3 092317Z 24006KT 06/M03 A3035 RMK A01 T00611031  RH  052%=      5-min Rain = 0
KHA3 092318Z 24006KT 06/M03 A3035 RMK A01 T00601031  RH  052%=      5-min Rain = 0
KHA3 092319Z 24006KT 06/M03 A3035 RMK A01 T00601031  RH  052%=      5-min Rain = 0
KHA3 092320Z 24006KT 06/M03 A3035 RMK A01 T00601028  RH  053%=      5-min Rain = 0
KHA3 092321Z 24005KT 06/M03 A3035 RMK A01 T00581029  RH  053%=      5-min Rain = 0
KHA3 092322Z 24005KT 06/M03 A3035 RMK A01 T00581030  RH  053%=      5-min Rain = 0
KHA3 092323Z 24005KT 06/M03 A3035 RMK A01 T00581031  RH  053%=      5-min Rain = 0
KHA3 092324Z 24006KT 06/M03 A3034 RMK A01 T00571029  RH  054%=      5-min Rain = 0
KHA3 092325Z 24006KT 06/M03 A3034 RMK A01 T00561028  RH  055%=      5-min Rain = 0
KHA3 092326Z 23006KT 06/M03 A3034 RMK A01 T00551029  RH  055%=      5-min Rain = 0
KHA3 092327Z 24006KT 05/M03 A3034 RMK A01 T00541029  RH  055%=      5-min Rain = 0
KHA3 092328Z 24007KT 05/M03 A3034 RMK A01 T00531029  RH  055%=      5-min Rain = 0
KHA3 092329Z 24007KT 05/M03 A3034 RMK A01 T00521029  RH  056%=      5-min Rain = 0
KHA3 092330Z 24007KT 05/M03 A3034 RMK A01 T00511029  RH  056%=      5-min Rain = 0
KHA3 092331Z 24007KT 05/M03 A3034 RMK A01 T00511030  RH  056%=      5-min Rain = 0
KHA3 092332Z 24007KT 05/M03 A3034 RMK A01 T00511031  RH  055%=      5-min Rain = 0
KHA3 092333Z 24007KT 05/M03 A3034 RMK A01 T00511030  RH  056%=      5-min Rain = 0
KHA3 092334Z 24007KT 05/M03 A3034 RMK A01 T00501030  RH  056%=      5-min Rain = 0
KHA3 092335Z 24006KT 05/M03 A3034 RMK A01 T00501030  RH  056%=      5-min Rain = 0
KHA3 092336Z 24006KT 05/M03 A3034 RMK A01 T00491031  RH  056%=      5-min Rain = 0
KHA3 092337Z 24007KT 05/M03 A3034 RMK A01 T00491031  RH  056%=      5-min Rain = 0
KHA3 092338Z 24007KT 05/M03 A3034 RMK A01 T00481030  RH  057%=      5-min Rain = 0
KHA3 092339Z 24007KT 05/M03 A3034 RMK A01 T00471029  RH  058%=      5-min Rain = 0
KHA3 092340Z 24007KT 05/M03 A3034 RMK A01 T00461029  RH  058%=      5-min Rain = 0
KHA3 092341Z 24007KT 05/M03 A3034 RMK A01 T00451029  RH  059%=      5-min Rain = 0
KHA3 092342Z 24007KT 04/M03 A3034 RMK A01 T00441029  RH  059%=      5-min Rain = 0
KHA3 092343Z 24007KT 04/M03 A3034 RMK A01 T00441029  RH  059%=      5-min Rain = 0
KHA3 092344Z 24007KT 04/M03 A3034 RMK A01 T00441029  RH  059%=      5-min Rain = 0
KHA3 092345Z 24007KT 04/M03 A3034 RMK A01 T00431028  RH  060%=      5-min Rain = 0
KHA3 092346Z 24006KT 04/M03 A3034 RMK A01 T00431029  RH  059%=      5-min Rain = 0
KHA3 092347Z 24006KT 04/M03 A3035 RMK A01 T00431029  RH  059%=      5-min Rain = 0
KHA3 092348Z 24006KT 04/M03 A3035 RMK A01 T00421029  RH  059%=      5-min Rain = 0
KHA3 092349Z 24006KT 04/M03 A3035 RMK A01 T00421029  RH  060%=      5-min Rain = 0
KHA3 092350Z 24006KT 04/M03 A3035 RMK A01 T00421028  RH  060%=      5-min Rain = 0
KHA3 092351Z 24006KT 04/M03 A3035 RMK A01 T00411028  RH  061%=      5-min Rain = 0
KHA3 092352Z 24006KT 04/M03 A3035 RMK A01 T00401027  RH  062%=      5-min Rain = 0
KHA3 092353Z 24005KT 04/M03 A3035 RMK A01 T00391026  RH  062%=      5-min Rain = 0
KHA3 092354Z 23005KT 04/M03 A3035 RMK A01 T00391026  RH  063%=      5-min Rain = 0
KHA3 092355Z 23005KT 04/M03 A3035 RMK A01 T00381026  RH  063%=      5-min Rain = 0
KHA3 092356Z 23005KT 04/M03 A3035 RMK A01 T00371026  RH  063%=      5-min Rain = 0
KHA3 092357Z 23005KT 04/M03 A3035 RMK A01 T00371026  RH  064%=      5-min Rain = 0
KHA3 092358Z 23005KT 04/M03 A3035 RMK A01 T00351026  RH  064%=      5-min Rain = 0
KHA3 092359Z 23005KT 03/M03 A3035 RMK A01 T00341025  RH  065%=      5-min Rain = 0
KHA3 100000Z 23005KT 03/M03 A3035 RMK A01 T00331025  RH  065%=      5-min Rain = 0
KHA3 100001Z 23005KT 03/M03 A3035 RMK A01 T00331025  RH  066%=      5-min Rain = 0
KHA3 100002Z 23005KT 03/M03 A3035 RMK A01 T00311025  RH  066%=      5-min Rain = 0
KHA3 100003Z 22006KT 03/M03 A3035 RMK A01 T00301025  RH  067%=      5-min Rain = 0
KHA3 100004Z 22006KT 03/M02 A3035 RMK A01 T00291024  RH  068%=      5-min Rain = 0
KHA3 100005Z 22005KT 03/M03 A3035 RMK A01 T00281025  RH  068%=      5-min Rain = 0
KHA3 100006Z 22005KT 03/M03 A3035 RMK A01 T00271025  RH  069%=      5-min Rain = 0
KHA3 100007Z 22006KT 03/M03 A3035 RMK A01 T00271025  RH  069%=      5-min Rain = 0
KHA3 100008Z 22006KT 03/M02 A3035 RMK A01 T00271024  RH  069%=      5-min Rain = 0
KHA3 100009Z 22006KT 03/M02 A3035 RMK A01 T00261023  RH  070%=      5-min Rain = 0
KHA3 100010Z 23006KT 03/M02 A3035 RMK A01 T00261023  RH  070%=      5-min Rain = 0
KHA3 100011Z 23006KT 03/M02 A3035 RMK A01 T00251023  RH  071%=      5-min Rain = 0
KHA3 100012Z 23005KT 03/M02 A3035 RMK A01 T00251023  RH  071%=      5-min Rain = 0
KHA3 100013Z 23006KT 03/M02 A3035 RMK A01 T00261023  RH  070%=      5-min Rain = 0
KHA3 100014Z 23005KT 03/M02 A3035 RMK A01 T00261023  RH  070%=      5-min Rain = 0
KHA3 100015Z 23005KT 03/M02 A3035 RMK A01 T00251023  RH  070%=      5-min Rain = 0
KHA3 100016Z 23005KT 03/M02 A3035 RMK A01 T00251023  RH  071%=      5-min Rain = 0
KHA3 100017Z 23005KT 02/M02 A3035 RMK A01 T00241024  RH  071%=      5-min Rain = 0
KHA3 100018Z 22005KT 02/M02 A3035 RMK A01 T00241024  RH  071%=      5-min Rain = 0
KHA3 100019Z 23004KT 02/M02 A3035 RMK A01 T00231024  RH  071%=      5-min Rain = 0
KHA3 100020Z 23005KT 02/M02 A3035 RMK A01 T00231024  RH  071%=      5-min Rain = 0
KHA3 100021Z 23005KT 02/M02 A3035 RMK A01 T00231024  RH  071%=      5-min Rain = 0
KHA3 100022Z 24004KT 02/M03 A3035 RMK A01 T00231025  RH  071%=      5-min Rain = 0
KHA3 100023Z 23004KT 02/M02 A3036 RMK A01 T00231024  RH  071%=      5-min Rain = 0
KHA3 100024Z 23005KT 02/M02 A3036 RMK A01 T00231024  RH  071%=      5-min Rain = 0
KHA3 100025Z 23005KT 02/M02 A3036 RMK A01 T00231024  RH  071%=      5-min Rain = 0
KHA3 100026Z 23005KT 02/M02 A3036 RMK A01 T00231024  RH  071%=      5-min Rain = 0
KHA3 100027Z 23005KT 02/M02 A3036 RMK A01 T00241024  RH  070%=      5-min Rain = 0
KHA3 100028Z 23005KT 03/M03 A3036 RMK A01 T00251025  RH  070%=      5-min Rain = 0
KHA3 100029Z 23005KT 03/M02 A3036 RMK A01 T00251024  RH  070%=      5-min Rain = 0
KHA3 100030Z 23005KT 02/M03 A3036 RMK A01 T00241025  RH  070%=      5-min Rain = 0
KHA3 100031Z 23005KT 02/M03 A3036 RMK A01 T00241025  RH  070%=      5-min Rain = 0
KHA3 100032Z 23005KT 02/M03 A3036 RMK A01 T00231026  RH  070%=      5-min Rain = 0
KHA3 100033Z 23005KT 02/M03 A3036 RMK A01 T00231026  RH  070%=      5-min Rain = 0
KHA3 100034Z 23005KT 02/M03 A3036 RMK A01 T00221027  RH  070%=      5-min Rain = 0
KHA3 100035Z 23005KT 02/M03 A3036 RMK A01 T00221027  RH  070%=      5-min Rain = 0
KHA3 100036Z 23005KT 02/M03 A3036 RMK A01 T00221027  RH  070%=      5-min Rain = 0
KHA3 100037Z 23006KT 02/M03 A3036 RMK A01 T00211027  RH  070%=      5-min Rain = 0
KHA3 100038Z 23005KT 02/M03 A3036 RMK A01 T00211027  RH  071%=      5-min Rain = 0
KHA3 100039Z 23005KT 02/M03 A3036 RMK A01 T00211027  RH  070%=      5-min Rain = 0
KHA3 100040Z 23005KT 02/M03 A3036 RMK A01 T00211028  RH  070%=      5-min Rain = 0
KHA3 100041Z 23005KT 02/M03 A3036 RMK A01 T00211028  RH  070%=      5-min Rain = 0
KHA3 100042Z 23005KT 02/M03 A3036 RMK A01 T00211028  RH  070%=      5-min Rain = 0
KHA3 100043Z 23005KT 02/M03 A3036 RMK A01 T00201028  RH  070%=      5-min Rain = 0
KHA3 100044Z 23005KT 02/M03 A3036 RMK A01 T00211028  RH  070%=      5-min Rain = 0
KHA3 100045Z 23005KT 02/M03 A3036 RMK A01 T00211028  RH  070%=      5-min Rain = 0
KHA3 100046Z 23005KT 02/M03 A3036 RMK A01 T00211028  RH  070%=      5-min Rain = 0
KHA3 100047Z 23005KT 02/M03 A3036 RMK A01 T00211028  RH  070%=      5-min Rain = 0
KHA3 100048Z 23005KT 02/M03 A3036 RMK A01 T00211028  RH  070%=      5-min Rain = 0
KHA3 100049Z 23005KT 02/M03 A3036 RMK A01 T00221028  RH  070%=      5-min Rain = 0
KHA3 100050Z 22005KT 02/M03 A3036 RMK A01 T00211027  RH  070%=      5-min Rain = 0
KHA3 100051Z 23005KT 02/M03 A3036 RMK A01 T00211027  RH  071%=      5-min Rain = 0
KHA3 100052Z 23004KT 02/M03 A3036 RMK A01 T00201028  RH  070%=      5-min Rain = 0
KHA3 100053Z 23004KT 02/M03 A3036 RMK A01 T00201028  RH  070%=      5-min Rain = 0
KHA3 100054Z 23005KT 02/M03 A3036 RMK A01 T00201029  RH  070%=      5-min Rain = 0
KHA3 100055Z 23005KT 02/M03 A3036 RMK A01 T00201029  RH  070%=      5-min Rain = 0
KHA3 100056Z 23005KT 02/M03 A3036 RMK A01 T00191029  RH  070%=      5-min Rain = 0
KHA3 100057Z 23005KT 02/M03 A3036 RMK A01 T00191029  RH  071%=      5-min Rain = 0
KHA3 100058Z 23005KT 02/M03 A3036 RMK A01 T00181029  RH  071%=      5-min Rain = 0
KHA3 100059Z 23005KT 02/M03 A3037 RMK A01 T00191030  RH  070%=      5-min Rain = 0
KHA3 100100Z 23005KT 02/M03 A3037 RMK A01 T00191030  RH  070%=      5-min Rain = 0
KHA3 100101Z 24006KT 02/M03 A3037 RMK A01 T00201029  RH  070%=      5-min Rain = 0
KHA3 100102Z 23006KT 02/M03 A3037 RMK A01 T00211030  RH  069%=      5-min Rain = 0
KHA3 100103Z 23006KT 02/M03 A3037 RMK A01 T00221030  RH  069%=      5-min Rain = 0
KHA3 100104Z 23007KT 02/M03 A3037 RMK A01 T00221029  RH  069%=      5-min Rain = 0
KHA3 100105Z 23006KT 02/M03 A3037 RMK A01 T00211030  RH  069%=      5-min Rain = 0
KHA3 100106Z 24006KT 02/M03 A3037 RMK A01 T00211030  RH  069%=      5-min Rain = 0
KHA3 100107Z 23006KT 02/M03 A3037 RMK A01 T00201030  RH  069%=      5-min Rain = 0
KHA3 100108Z 23006KT 02/M03 A3037 RMK A01 T00201031  RH  069%=      5-min Rain = 0
KHA3 100109Z 23006KT 02/M03 A3037 RMK A01 T00201031  RH  069%=      5-min Rain = 0
KHA3 100110Z 23006KT 02/M03 A3037 RMK A01 T00201031  RH  069%=      5-min Rain = 0
KHA3 100111Z 23006KT 02/M03 A3037 RMK A01 T00201031  RH  069%=      5-min Rain = 0
KHA3 100112Z 23006KT 02/M03 A3037 RMK A01 T00201031  RH  069%=      5-min Rain = 0
KHA3 100113Z 23006KT 02/M03 A3037 RMK A01 T00191031  RH  069%=      5-min Rain = 0
KHA3 100114Z 22005KT 02/M03 A3037 RMK A01 T00191031  RH  069%=      5-min Rain = 0
KHA3 100115Z 23005KT 02/M03 A3037 RMK A01 T00181032  RH  069%=      5-min Rain = 0
KHA3 100116Z 23005KT 02/M03 A3037 RMK A01 T00181032  RH  070%=      5-min Rain = 0
KHA3 100117Z 23005KT 02/M03 A3037 RMK A01 T00171032  RH  070%=      5-min Rain = 0
KHA3 100118Z 23006KT 02/M03 A3037 RMK A01 T00171032  RH  070%=      5-min Rain = 0
KHA3 100119Z 23006KT 02/M03 A3037 RMK A01 T00171032  RH  070%=      5-min Rain = 0
KHA3 100120Z 23005KT 02/M03 A3037 RMK A01 T00171031  RH  070%=      5-min Rain = 0
KHA3 100121Z 23005KT 02/M03 A3037 RMK A01 T00161031  RH  071%=      5-min Rain = 0
KHA3 100122Z 23005KT 01/M03 A3037 RMK A01 T00141031  RH  072%=      5-min Rain = 0
KHA3 100123Z 22005KT 01/M03 A3037 RMK A01 T00131032  RH  072%=      5-min Rain = 0
KHA3 100124Z 22004KT 01/M03 A3037 RMK A01 T00131032  RH  072%=      5-min Rain = 0
KHA3 100125Z 22005KT 01/M03 A3037 RMK A01 T00131031  RH  072%=      5-min Rain = 0
KHA3 100126Z 22006KT 01/M03 A3037 RMK A01 T00121032  RH  073%=      5-min Rain = 0
KHA3 100127Z 23005KT 01/M03 A3037 RMK A01 T00131031  RH  072%=      5-min Rain = 0
KHA3 100128Z 23005KT 01/M03 A3037 RMK A01 T00141031  RH  072%=      5-min Rain = 0
KHA3 100129Z 23005KT 02/M03 A3037 RMK A01 T00151030  RH  072%=      5-min Rain = 0
KHA3 100130Z 23005KT 02/M03 A3037 RMK A01 T00151030  RH  072%=      5-min Rain = 0
KHA3 100131Z 23005KT 02/M03 A3037 RMK A01 T00151030  RH  072%=      5-min Rain = 0
KHA3 100132Z 23005KT 02/M03 A3037 RMK A01 T00151030  RH  072%=      5-min Rain = 0
KHA3 100133Z 23006KT 02/M03 A3037 RMK A01 T00151029  RH  072%=      5-min Rain = 0
KHA3 100134Z 23005KT 02/M03 A3037 RMK A01 T00151029  RH  072%=      5-min Rain = 0
KHA3 100135Z 22005KT 02/M03 A3037 RMK A01 T00151028  RH  073%=      5-min Rain = 0
KHA3 100136Z 22005KT 01/M03 A3037 RMK A01 T00141028  RH  073%=      5-min Rain = 0
KHA3 100137Z 22005KT 01/M03 A3037 RMK A01 T00131028  RH  074%=      5-min Rain = 0
KHA3 100138Z 23004KT 01/M03 A3037 RMK A01 T00131028  RH  074%=      5-min Rain = 0
KHA3 100139Z 22004KT 01/M03 A3037 RMK A01 T00131028  RH  074%=      5-min Rain = 0
KHA3 100140Z 23004KT 01/M03 A3037 RMK A01 T00121028  RH  075%=      5-min Rain = 0
KHA3 100141Z 23004KT 01/M03 A3037 RMK A01 T00111028  RH  075%=      5-min Rain = 0
KHA3 100142Z 22004KT 01/M03 A3037 RMK A01 T00111028  RH  075%=      5-min Rain = 0
KHA3 100143Z 23005KT 01/M03 A3037 RMK A01 T00111028  RH  075%=      5-min Rain = 0
KHA3 100144Z 23005KT 01/M03 A3037 RMK A01 T00111028  RH  075%=      5-min Rain = 0
KHA3 100145Z 23005KT 01/M03 A3037 RMK A01 T00111027  RH  076%=      5-min Rain = 0
KHA3 100146Z 23005KT 01/M03 A3037 RMK A01 T00101027  RH  076%=      5-min Rain = 0
KHA3 100147Z 23005KT 01/M03 A3037 RMK A01 T00101027  RH  076%=      5-min Rain = 0
KHA3 100148Z 23005KT 01/M03 A3037 RMK A01 T00101027  RH  076%=      5-min Rain = 0
KHA3 100149Z 23005KT 01/M03 A3037 RMK A01 T00111026  RH  076%=      5-min Rain = 0
KHA3 100150Z 23006KT 01/M03 A3037 RMK A01 T00111026  RH  076%=      5-min Rain = 0
KHA3 100151Z 23005KT 01/M03 A3037 RMK A01 T00121026  RH  076%=      5-min Rain = 0
KHA3 100152Z 23005KT 01/M03 A3037 RMK A01 T00121026  RH  076%=      5-min Rain = 0
KHA3 100153Z 23006KT 01/M03 A3037 RMK A01 T00131026  RH  076%=      5-min Rain = 0
KHA3 100154Z 24005KT 01/M03 A3037 RMK A01 T00141026  RH  075%=      5-min Rain = 0
KHA3 100155Z 24005KT 01/M03 A3037 RMK A01 T00141026  RH  075%=      5-min Rain = 0
KHA3 100156Z 24005KT 02/M03 A3037 RMK A01 T00151025  RH  074%=      5-min Rain = 0
KHA3 100157Z 24005KT 02/M03 A3037 RMK A01 T00151025  RH  074%=      5-min Rain = 0
KHA3 100158Z 24005KT 02/M03 A3037 RMK A01 T00151025  RH  075%=      5-min Rain = 0
KHA3 100159Z 24005KT 02/M03 A3037 RMK A01 T00151025  RH  075%=      5-min Rain = 0
KHA3 100200Z 24006KT 01/M03 A3037 RMK A01 T00141025  RH  075%=      5-min Rain = 0
KHA3 100201Z 24006KT 01/M03 A3037 RMK A01 T00141025  RH  075%=      5-min Rain = 0
KHA3 100202Z 24005KT 01/M02 A3037 RMK A01 T00141024  RH  075%=      5-min Rain = 0
KHA3 100203Z 24005KT 01/M02 A3037 RMK A01 T00141024  RH  075%=      5-min Rain = 0
KHA3 100204Z 24005KT 01/M03 A3037 RMK A01 T00141025  RH  075%=      5-min Rain = 0
KHA3 100205Z 24006KT 01/M03 A3037 RMK A01 T00131025  RH  076%=      5-min Rain = 0
KHA3 100206Z 24005KT 01/M02 A3037 RMK A01 T00131024  RH  076%=      5-min Rain = 0
KHA3 100207Z 24006KT 01/M02 A3037 RMK A01 T00131024  RH  076%=      5-min Rain = 0
KHA3 100208Z 24006KT 01/M02 A3037 RMK A01 T00131024  RH  076%=      5-min Rain = 0
KHA3 100209Z 24006KT 01/M02 A3037 RMK A01 T00131024  RH  076%=      5-min Rain = 0
KHA3 100210Z 24006KT 01/M02 A3037 RMK A01 T00131024  RH  076%=      5-min Rain = 0
KHA3 100211Z 24006KT 01/M02 A3037 RMK A01 T00141023  RH  076%=      5-min Rain = 0
KHA3 100212Z 24006KT 01/M02 A3037 RMK A01 T00141023  RH  077%=      5-min Rain = 0
KHA3 100213Z 24006KT 01/M02 A3037 RMK A01 T00131023  RH  077%=      5-min Rain = 0
KHA3 100214Z 24006KT 01/M02 A3037 RMK A01 T00131023  RH  077%=      5-min Rain = 0
KHA3 100215Z 24005KT 01/M02 A3037 RMK A01 T00131023  RH  077%=      5-min Rain = 0
KHA3 100216Z 24006KT 01/M02 A3037 RMK A01 T00131023  RH  077%=      5-min Rain = 0
KHA3 100217Z 24006KT 01/M02 A3037 RMK A01 T00131023  RH  077%=      5-min Rain = 0
KHA3 100218Z 24006KT 01/M02 A3037 RMK A01 T00131022  RH  077%=      5-min Rain = 0
KHA3 100219Z 24006KT 01/M02 A3037 RMK A01 T00131022  RH  078%=      5-min Rain = 0
KHA3 100220Z 24006KT 01/M02 A3037 RMK A01 T00121023  RH  078%=      5-min Rain = 0
KHA3 100221Z 24006KT 01/M02 A3037 RMK A01 T00121022  RH  078%=      5-min Rain = 0
KHA3 100222Z 24006KT 01/M02 A3037 RMK A01 T00131022  RH  078%=      5-min Rain = 0
KHA3 100223Z 24006KT 01/M02 A3037 RMK A01 T00121022  RH  078%=      5-min Rain = 0
KHA3 100224Z 24006KT 01/M02 A3037 RMK A01 T00121022  RH  079%=      5-min Rain = 0
KHA3 100225Z 24006KT 01/M02 A3037 RMK A01 T00121021  RH  079%=      5-min Rain = 0
KHA3 100226Z 24006KT 01/M02 A3037 RMK A01 T00111022  RH  079%=      5-min Rain = 0
KHA3 100227Z 24006KT 01/M02 A3037 RMK A01 T00111022  RH  079%=      5-min Rain = 0
KHA3 100228Z 24006KT 01/M02 A3037 RMK A01 T00111021  RH  079%=      5-min Rain = 0
KHA3 100229Z 24006KT 01/M02 A3037 RMK A01 T00111022  RH  079%=      5-min Rain = 0
KHA3 100230Z 24006KT 01/M02 A3037 RMK A01 T00111022  RH  079%=      5-min Rain = 0
KHA3 100231Z 24006KT 01/M02 A3037 RMK A01 T00111021  RH  079%=      5-min Rain = 0
KHA3 100232Z 24006KT 01/M02 A3037 RMK A01 T00101022  RH  079%=      5-min Rain = 0
KHA3 100233Z 23006KT 01/M02 A3037 RMK A01 T00111022  RH  079%=      5-min Rain = 0
KHA3 100234Z 23006KT 01/M02 A3037 RMK A01 T00111022  RH  079%=      5-min Rain = 0
KHA3 100235Z 23006KT 01/M02 A3037 RMK A01 T00111022  RH  079%=      5-min Rain = 0
KHA3 100236Z 23006KT 01/M02 A3037 RMK A01 T00111022  RH  079%=      5-min Rain = 0
KHA3 100237Z 23006KT 01/M02 A3037 RMK A01 T00111022  RH  079%=      5-min Rain = 0
KHA3 100238Z 23006KT 01/M02 A3037 RMK A01 T00111022  RH  078%=      5-min Rain = 0
KHA3 100239Z 23007KT 01/M02 A3037 RMK A01 T00111022  RH  079%=      5-min Rain = 0
KHA3 100240Z 23006KT 01/M02 A3037 RMK A01 T00121021  RH  079%=      5-min Rain = 0
KHA3 100241Z 23007KT 01/M02 A3037 RMK A01 T00121021  RH  079%=      5-min Rain = 0
KHA3 100242Z 24007KT 01/M02 A3037 RMK A01 T00121021  RH  079%=      5-min Rain = 0
KHA3 100243Z 24007KT 01/M02 A3037 RMK A01 T00121021  RH  078%=      5-min Rain = 0
KHA3 100244Z 23007KT 01/M02 A3037 RMK A01 T00121022  RH  078%=      5-min Rain = 0
KHA3 100245Z 24007KT 01/M02 A3037 RMK A01 T00121021  RH  078%=      5-min Rain = 0
KHA3 100246Z 24007KT 01/M02 A3037 RMK A01 T00121022  RH  078%=      5-min Rain = 0
KHA3 100247Z 24007KT 01/M02 A3037 RMK A01 T00131022  RH  078%=      5-min Rain = 0
KHA3 100248Z 23007KT 01/M02 A3036 RMK A01 T00131022  RH  077%=      5-min Rain = 0
KHA3 100249Z 23007KT 01/M02 A3036 RMK A01 T00141021  RH  077%=      5-min Rain = 0
KHA3 100250Z 23007KT 01/M02 A3036 RMK A01 T00131021  RH  078%=      5-min Rain = 0
KHA3 100251Z 23006KT 01/M02 A3036 RMK A01 T00131022  RH  078%=      5-min Rain = 0
KHA3 100252Z 23007KT 01/M02 A3036 RMK A01 T00131022  RH  078%=      5-min Rain = 0
KHA3 100253Z 23006KT 01/M02 A3036 RMK A01 T00121023  RH  078%=      5-min Rain = 0
KHA3 100254Z 23006KT 01/M02 A3036 RMK A01 T00111023  RH  078%=      5-min Rain = 0
KHA3 100255Z 23006KT 01/M02 A3036 RMK A01 T00111023  RH  078%=      5-min Rain = 0
KHA3 100256Z 23006KT 01/M02 A3036 RMK A01 T00101023  RH  078%=      5-min Rain = 0
KHA3 100257Z 23007KT 01/M02 A3036 RMK A01 T00101023  RH  079%=      5-min Rain = 0
KHA3 100258Z 23006KT 01/M02 A3036 RMK A01 T00101023  RH  079%=      5-min Rain = 0
KHA3 100259Z 23007KT 01/M02 A3036 RMK A01 T00101023  RH  078%=      5-min Rain = 0
KHA3 100300Z 23007KT 01/M02 A3036 RMK A01 T00111022  RH  078%=      5-min Rain = 0
KHA3 100301Z 23008KT 01/M02 A3036 RMK A01 T00121022  RH  078%=      5-min Rain = 0
KHA3 100302Z 24008KT 01/M02 A3036 RMK A01 T00141022  RH  077%=      5-min Rain = 0
KHA3 100303Z 24008KT 02/M02 A3037 RMK A01 T00151022  RH  076%=      5-min Rain = 0
KHA3 100304Z 24008KT 02/M02 A3037 RMK A01 T00151022  RH  076%=      5-min Rain = 0
KHA3 100305Z 24008KT 02/M02 A3037 RMK A01 T00151023  RH  076%=      5-min Rain = 0
KHA3 100306Z 24008KT 02/M02 A3037 RMK A01 T00161023  RH  076%=      5-min Rain = 0
KHA3 100307Z 24007KT 02/M02 A3037 RMK A01 T00161023  RH  075%=      5-min Rain = 0
KHA3 100308Z 24008KT 02/M02 A3037 RMK A01 T00151023  RH  076%=      5-min Rain = 0
KHA3 100309Z 24008KT 02/M02 A3037 RMK A01 T00151023  RH  076%=      5-min Rain = 0
KHA3 100310Z 24008KT 01/M02 A3037 RMK A01 T00141023  RH  076%=      5-min Rain = 0
KHA3 100311Z 24008KT 01/M02 A3037 RMK A01 T00131023  RH  077%=      5-min Rain = 0
KHA3 100312Z 24008KT 01/M02 A3037 RMK A01 T00131023  RH  077%=      5-min Rain = 0
KHA3 100313Z 24007KT 01/M02 A3037 RMK A01 T00121023  RH  077%=      5-min Rain = 0
KHA3 100314Z 24007KT 01/M02 A3037 RMK A01 T00121024  RH  077%=      5-min Rain = 0
KHA3 100315Z 24007KT 01/M02 A3037 RMK A01 T00121024  RH  077%=      5-min Rain = 0
KHA3 100316Z 24007KT 01/M02 A3037 RMK A01 T00121024  RH  077%=      5-min Rain = 0
KHA3 100317Z 24007KT 01/M02 A3037 RMK A01 T00121024  RH  077%=      5-min Rain = 0
KHA3 100318Z 24007KT 01/M02 A3037 RMK A01 T00111024  RH  078%=      5-min Rain = 0
KHA3 100319Z 24007KT 01/M02 A3037 RMK A01 T00101024  RH  078%=      5-min Rain = 0
KHA3 100320Z 24007KT 01/M02 A3037 RMK A01 T00091024  RH  079%=      5-min Rain = 0
KHA3 100321Z 24007KT 01/M02 A3037 RMK A01 T00081024  RH  079%=      5-min Rain = 0
KHA3 100322Z 23007KT 01/M02 A3037 RMK A01 T00081024  RH  079%=      5-min Rain = 0
KHA3 100323Z 23007KT 01/M02 A3037 RMK A01 T00071024  RH  080%=      5-min Rain = 0
KHA3 100324Z 23007KT 01/M02 A3037 RMK A01 T00071024  RH  080%=      5-min Rain = 0
KHA3 100325Z 23007KT 01/M02 A3037 RMK A01 T00061024  RH  080%=      5-min Rain = 0
KHA3 100326Z 23007KT 01/M02 A3037 RMK A01 T00061024  RH  080%=      5-min Rain = 0
KHA3 100327Z 23007KT 01/M02 A3037 RMK A01 T00061024  RH  080%=      5-min Rain = 0
KHA3 100328Z 23007KT 01/M02 A3037 RMK A01 T00071024  RH  080%=      5-min Rain = 0
KHA3 100329Z 23007KT 01/M02 A3037 RMK A01 T00071023  RH  080%=      5-min Rain = 0
KHA3 100330Z 23008KT 01/M02 A3037 RMK A01 T00061024  RH  080%=      5-min Rain = 0
KHA3 100331Z 23007KT 01/M02 A3037 RMK A01 T00061024  RH  080%=      5-min Rain = 0
KHA3 100332Z 23007KT 01/M02 A3037 RMK A01 T00071023  RH  080%=      5-min Rain = 0
KHA3 100333Z 23007KT 01/M02 A3037 RMK A01 T00061023  RH  081%=      5-min Rain = 0
KHA3 100334Z 23007KT 01/M02 A3037 RMK A01 T00061023  RH  081%=      5-min Rain = 0
KHA3 100335Z 23007KT 01/M02 A3038 RMK A01 T00061023  RH  081%=      5-min Rain = 0
KHA3 100336Z 23007KT 01/M02 A3038 RMK A01 T00071023  RH  080%=      5-min Rain = 0
KHA3 100337Z 23007KT 01/M02 A3038 RMK A01 T00071024  RH  080%=      5-min Rain = 0
KHA3 100338Z 24007KT 01/M02 A3038 RMK A01 T00071024  RH  080%=      5-min Rain = 0
KHA3 100339Z 24008KT 01/M02 A3038 RMK A01 T00071023  RH  080%=      5-min Rain = 0
KHA3 100340Z 24007KT 01/M02 A3038 RMK A01 T00071024  RH  080%=      5-min Rain = 0
KHA3 100341Z 24007KT 01/M02 A3038 RMK A01 T00061024  RH  080%=      5-min Rain = 0
KHA3 100342Z 24007KT 01/M02 A3038 RMK A01 T00061024  RH  081%=      5-min Rain = 0
KHA3 100343Z 24007KT 01/M02 A3038 RMK A01 T00051024  RH  081%=      5-min Rain = 0
KHA3 100344Z 24008KT 01/M02 A3038 RMK A01 T00051024  RH  081%=      5-min Rain = 0
KHA3 100345Z 24007KT 00/M02 A3038 RMK A01 T00041024  RH  081%=      5-min Rain = 0
KHA3 100346Z 24007KT 00/M02 A3038 RMK A01 T00041024  RH  082%=      5-min Rain = 0
KHA3 100347Z 25007KT 00/M02 A3038 RMK A01 T00031024  RH  082%=      5-min Rain = 0
KHA3 100348Z 25007KT 00/M02 A3038 RMK A01 T00021024  RH  083%=      5-min Rain = 0
KHA3 100349Z 24007KT 00/M02 A3038 RMK A01 T00021024  RH  083%=      5-min Rain = 0
KHA3 100350Z 24007KT 00/M02 A3038 RMK A01 T00011024  RH  083%=      5-min Rain = 0
KHA3 100351Z 25006KT 00/M02 A3038 RMK A01 T00021024  RH  083%=      5-min Rain = 0
KHA3 100352Z 24007KT 00/M02 A3038 RMK A01 T00011024  RH  083%=      5-min Rain = 0
KHA3 100353Z 24007KT 00/M02 A3038 RMK A01 T00011024  RH  083%=      5-min Rain = 0
KHA3 100354Z 24007KT 00/M03 A3038 RMK A01 T00021025  RH  083%=      5-min Rain = 0
KHA3 100355Z 25007KT 00/M03 A3038 RMK A01 T00021025  RH  083%=      5-min Rain = 0
KHA3 100356Z 25007KT 00/M03 A3038 RMK A01 T00011025  RH  083%=      5-min Rain = 0
KHA3 100357Z 25007KT 00/03 A3038 RMK A01 T00-00-25  RH  083%=      5-min Rain = 0
KHA3 100358Z 25007KT M00/M03 A3038 RMK A01 T10011025  RH  084%=      5-min Rain = 0
KHA3 100359Z 25007KT M00/M03 A3038 RMK A01 T10011025  RH  084%=      5-min Rain = 0
KHA3 100400Z 25007KT M00/M03 A3038 RMK A01 T10021025  RH  084%=      5-min Rain = 0
KHA3 100401Z 25007KT M00/M03 A3038 RMK A01 T10021025  RH  084%=      5-min Rain = 0
KHA3 100402Z 25007KT M00/M03 A3038 RMK A01 T10021025  RH  084%=      5-min Rain = 0
KHA3 100403Z 25007KT M00/M03 A3038 RMK A01 T10021025  RH  084%=      5-min Rain = 0
KHA3 100404Z 25007KT M00/M03 A3038 RMK A01 T10021025  RH  084%=      5-min Rain = 0
KHA3 100405Z 25007KT M00/M03 A3038 RMK A01 T10021025  RH  085%=      5-min Rain = 0
KHA3 100406Z 24007KT M00/M03 A3038 RMK A01 T10021025  RH  085%=      5-min Rain = 0
KHA3 100407Z 24007KT M00/M03 A3038 RMK A01 T10021025  RH  085%=      5-min Rain = 0
KHA3 100408Z 24007KT M00/M03 A3038 RMK A01 T10021025  RH  084%=      5-min Rain = 0
KHA3 100409Z 24008KT M00/M03 A3038 RMK A01 T10011025  RH  084%=      5-min Rain = 0
KHA3 100410Z 24007KT 00/03 A3037 RMK A01 T00000-25  RH  083%=      5-min Rain = 0
KHA3 100411Z 24007KT 00/M03 A3037 RMK A01 T00011025  RH  082%=      5-min Rain = 0
KHA3 100412Z 24007KT 00/M03 A3037 RMK A01 T00021025  RH  082%=      5-min Rain = 0
KHA3 100413Z 24007KT 00/M03 A3037 RMK A01 T00021026  RH  082%=      5-min Rain = 0
KHA3 100414Z 24008KT 00/M03 A3037 RMK A01 T00021026  RH  081%=      5-min Rain = 0
KHA3 100415Z 24007KT 00/M03 A3037 RMK A01 T00031026  RH  081%=      5-min Rain = 0
KHA3 100416Z 24007KT 00/M03 A3037 RMK A01 T00031026  RH  081%=      5-min Rain = 0
KHA3 100417Z 23007KT 00/M03 A3037 RMK A01 T00031026  RH  081%=      5-min Rain = 0
KHA3 100418Z 23007KT 00/M03 A3037 RMK A01 T00031026  RH  081%=      5-min Rain = 0
KHA3 100419Z 23007KT 00/M03 A3037 RMK A01 T00031026  RH  081%=      5-min Rain = 0
KHA3 100420Z 23007KT 00/M03 A3037 RMK A01 T00021026  RH  081%=      5-min Rain = 0
KHA3 100421Z 23006KT 00/M03 A3037 RMK A01 T00021026  RH  082%=      5-min Rain = 0
KHA3 100422Z 23006KT 00/M03 A3037 RMK A01 T00011026  RH  082%=      5-min Rain = 0
KHA3 100423Z 23006KT 00/M03 A3037 RMK A01 T00011026  RH  082%=      5-min Rain = 0
KHA3 100424Z 23006KT 00/M03 A3037 RMK A01 T00011026  RH  082%=      5-min Rain = 0
KHA3 100425Z 22006KT 00/M03 A3037 RMK A01 T00011026  RH  082%=      5-min Rain = 0
KHA3 100426Z 23006KT 00/M03 A3037 RMK A01 T00011026  RH  082%=      5-min Rain = 0
KHA3 100427Z 24006KT 00/M03 A3037 RMK A01 T00011027  RH  082%=      5-min Rain = 0
KHA3 100428Z 23007KT 00/M03 A3037 RMK A01 T00011026  RH  082%=      5-min Rain = 0
KHA3 100429Z 23008KT 00/M03 A3037 RMK A01 T00011026  RH  082%=      5-min Rain = 0
KHA3 100430Z 23008KT 00/M03 A3037 RMK A01 T00021026  RH  081%=      5-min Rain = 0
KHA3 100431Z 23007KT 00/M03 A3037 RMK A01 T00021027  RH  081%=      5-min Rain = 0
KHA3 100432Z 23007KT 00/M03 A3037 RMK A01 T00021027  RH  081%=      5-min Rain = 0
KHA3 100433Z 23007KT 00/M03 A3037 RMK A01 T00021026  RH  081%=      5-min Rain = 0
KHA3 100434Z 23007KT 00/M03 A3037 RMK A01 T00021026  RH  081%=      5-min Rain = 0
KHA3 100435Z 23007KT 00/M03 A3037 RMK A01 T00021026  RH  081%=      5-min Rain = 0
KHA3 100436Z 24007KT 00/M03 A3037 RMK A01 T00021026  RH  081%=      5-min Rain = 0
KHA3 100437Z 24007KT 00/M03 A3037 RMK A01 T00021027  RH  081%=      5-min Rain = 0
KHA3 100438Z 23007KT 00/M03 A3037 RMK A01 T00021027  RH  081%=      5-min Rain = 0
KHA3 100439Z 24007KT 00/M03 A3037 RMK A01 T00031027  RH  080%=      5-min Rain = 0
KHA3 100440Z 24007KT 00/M03 A3037 RMK A01 T00031027  RH  080%=      5-min Rain = 0
KHA3 100441Z 24007KT 00/M03 A3037 RMK A01 T00031027  RH  080%=      5-min Rain = 0
KHA3 100442Z 24007KT 00/M03 A3037 RMK A01 T00031028  RH  080%=      5-min Rain = 0
KHA3 100443Z 24007KT 00/M03 A3037 RMK A01 T00031028  RH  080%=      5-min Rain = 0
KHA3 100444Z 24007KT 00/M03 A3037 RMK A01 T00031028  RH  079%=      5-min Rain = 0
KHA3 100445Z 24007KT 00/M03 A3037 RMK A01 T00031028  RH  079%=      5-min Rain = 0
KHA3 100446Z 24007KT 00/M03 A3037 RMK A01 T00041027  RH  080%=      5-min Rain = 0
KHA3 100447Z 24007KT 00/M03 A3037 RMK A01 T00031027  RH  080%=      5-min Rain = 0
KHA3 100448Z 24007KT 00/M03 A3037 RMK A01 T00031028  RH  080%=      5-min Rain = 0
KHA3 100449Z 24007KT 00/M03 A3037 RMK A01 T00031027  RH  080%=      5-min Rain = 0
KHA3 100450Z 24007KT 00/M03 A3037 RMK A01 T00021027  RH  080%=      5-min Rain = 0
KHA3 100451Z 23007KT 00/M03 A3037 RMK A01 T00021028  RH  080%=      5-min Rain = 0
KHA3 100452Z 23007KT 00/M03 A3037 RMK A01 T00021028  RH  080%=      5-min Rain = 0
KHA3 100453Z 23007KT 00/M03 A3037 RMK A01 T00021028  RH  081%=      5-min Rain = 0
KHA3 100454Z 23007KT 00/M03 A3037 RMK A01 T00021027  RH  081%=      5-min Rain = 0
KHA3 100455Z 23008KT 00/M03 A3037 RMK A01 T00011027  RH  081%=      5-min Rain = 0
KHA3 100456Z 23007KT 00/M03 A3037 RMK A01 T00011028  RH  081%=      5-min Rain = 0
KHA3 100457Z 23007KT 00/M03 A3037 RMK A01 T00011028  RH  081%=      5-min Rain = 0
KHA3 100458Z 23007KT 00/M03 A3037 RMK A01 T00011027  RH  081%=      5-min Rain = 0
KHA3 100459Z 23007KT 00/M03 A3037 RMK A01 T00011027  RH  081%=      5-min Rain = 0
KHA3 100500Z 23007KT 00/M03 A3037 RMK A01 T00011027  RH  081%=      5-min Rain = 0
KHA3 100501Z 23007KT 00/M03 A3037 RMK A01 T00011027  RH  081%=      5-min Rain = 0
KHA3 100502Z 23007KT 00/M03 A3037 RMK A01 T00011027  RH  081%=      5-min Rain = 0
KHA3 100503Z 23008KT 00/M03 A3037 RMK A01 T00011028  RH  081%=      5-min Rain = 0
KHA3 100504Z 23007KT 00/M03 A3037 RMK A01 T00021028  RH  081%=      5-min Rain = 0
KHA3 100505Z 23008KT 00/M03 A3037 RMK A01 T00021027  RH  081%=      5-min Rain = 0
KHA3 100506Z 23008KT 00/M03 A3037 RMK A01 T00021027  RH  081%=      5-min Rain = 0
KHA3 100507Z 23007KT 00/M03 A3037 RMK A01 T00011028  RH  081%=      5-min Rain = 0
KHA3 100508Z 23008KT 00/M03 A3037 RMK A01 T00011027  RH  081%=      5-min Rain = 0
KHA3 100509Z 23008KT 00/M03 A3037 RMK A01 T00011027  RH  081%=      5-min Rain = 0
KHA3 100510Z 24008KT 00/M03 A3037 RMK A01 T00011027  RH  081%=      5-min Rain = 0
KHA3 100511Z 23007KT 00/M03 A3037 RMK A01 T00011027  RH  081%=      5-min Rain = 0
KHA3 100512Z 23007KT 00/M03 A3037 RMK A01 T00011028  RH  081%=      5-min Rain = 0
KHA3 100513Z 23007KT 00/M03 A3037 RMK A01 T00011028  RH  081%=      5-min Rain = 0
KHA3 100514Z 23007KT 00/M03 A3037 RMK A01 T00011027  RH  081%=      5-min Rain = 0
KHA3 100515Z 23007KT 00/03 A3037 RMK A01 T00000-27  RH  082%=      5-min Rain = 0
KHA3 100516Z 23007KT 00/03 A3037 RMK A01 T00-00-28  RH  082%=      5-min Rain = 0
KHA3 100517Z 23006KT 00/03 A3037 RMK A01 T00-00-28  RH  082%=      5-min Rain = 0
KHA3 100518Z 23007KT 00/03 A3037 RMK A01 T00000-28  RH  082%=      5-min Rain = 0
KHA3 100519Z 23007KT 00/03 A3037 RMK A01 T00-00-28  RH  081%=      5-min Rain = 0
KHA3 100520Z 23007KT 00/03 A3037 RMK A01 T00000-28  RH  081%=      5-min Rain = 0
KHA3 100521Z 23007KT 00/M03 A3037 RMK A01 T00011028  RH  081%=      5-min Rain = 0
KHA3 100522Z 23007KT 00/03 A3037 RMK A01 T00000-28  RH  081%=      5-min Rain = 0
KHA3 100523Z 23007KT 00/03 A3037 RMK A01 T00000-28  RH  081%=      5-min Rain = 0
KHA3 100524Z 23007KT 00/M03 A3037 RMK A01 T00011028  RH  081%=      5-min Rain = 0
KHA3 100525Z 23007KT 00/M03 A3037 RMK A01 T00011028  RH  081%=      5-min Rain = 0
KHA3 100526Z 23007KT 00/M03 A3037 RMK A01 T00011027  RH  081%=      5-min Rain = 0
KHA3 100527Z 23007KT 00/M03 A3037 RMK A01 T00011027  RH  081%=      5-min Rain = 0
KHA3 100528Z 23007KT 00/M03 A3037 RMK A01 T00011027  RH  081%=      5-min Rain = 0
KHA3 100529Z 23007KT 00/M03 A3037 RMK A01 T00011028  RH  081%=      5-min Rain = 0
KHA3 100530Z 23007KT 00/M03 A3037 RMK A01 T00011028  RH  081%=      5-min Rain = 0
KHA3 100531Z 23007KT 00/M03 A3037 RMK A01 T00011028  RH  081%=      5-min Rain = 0
KHA3 100532Z 23007KT 00/M03 A3037 RMK A01 T00021028  RH  081%=      5-min Rain = 0
KHA3 100533Z 23007KT 00/M03 A3037 RMK A01 T00011028  RH  081%=      5-min Rain = 0
KHA3 100534Z 23007KT 00/M03 A3037 RMK A01 T00011028  RH  081%=      5-min Rain = 0
KHA3 100535Z 23007KT 00/M03 A3036 RMK A01 T00021027  RH  081%=      5-min Rain = 0
KHA3 100536Z 23007KT 00/M03 A3036 RMK A01 T00021027  RH  081%=      5-min Rain = 0
KHA3 100537Z 23007KT 00/M03 A3036 RMK A01 T00021027  RH  081%=      5-min Rain = 0
KHA3 100538Z 23008KT 00/M03 A3036 RMK A01 T00021027  RH  081%=      5-min Rain = 0
KHA3 100539Z 23007KT 00/M03 A3036 RMK A01 T00021027  RH  081%=      5-min Rain = 0
KHA3 100540Z 23008KT 00/M03 A3036 RMK A01 T00021027  RH  081%=      5-min Rain = 0
KHA3 100541Z 23007KT 00/M03 A3036 RMK A01 T00021027  RH  081%=      5-min Rain = 0
KHA3 100542Z 23007KT 00/M03 A3036 RMK A01 T00021027  RH  081%=      5-min Rain = 0
KHA3 100543Z 23007KT 00/M03 A3036 RMK A01 T00021027  RH  081%=      5-min Rain = 0
KHA3 100544Z 23007KT 00/M03 A3036 RMK A01 T00021027  RH  081%=      5-min Rain = 0
KHA3 100545Z 23007KT 00/M03 A3036 RMK A01 T00021027  RH  081%=      5-min Rain = 0
KHA3 100546Z 23007KT 00/M03 A3036 RMK A01 T00021028  RH  080%=      5-min Rain = 0
KHA3 100547Z 22007KT 00/M03 A3036 RMK A01 T00031027  RH  080%=      5-min Rain = 0
KHA3 100548Z 22007KT 00/M03 A3036 RMK A01 T00021028  RH  080%=      5-min Rain = 0
KHA3 100549Z 22007KT 00/M03 A3036 RMK A01 T00021028  RH  081%=      5-min Rain = 0
KHA3 100550Z 23007KT 00/M03 A3036 RMK A01 T00011028  RH  081%=      5-min Rain = 0
KHA3 100551Z 23007KT 00/03 A3036 RMK A01 T00000-28  RH  081%=      5-min Rain = 0
KHA3 100552Z 23006KT 00/03 A3036 RMK A01 T00000-28  RH  081%=      5-min Rain = 0
KHA3 100553Z 23007KT 00/M03 A3036 RMK A01 T00011028  RH  081%=      5-min Rain = 0
KHA3 100554Z 23007KT 00/M03 A3036 RMK A01 T00011028  RH  081%=      5-min Rain = 0
KHA3 100555Z 23007KT 00/M03 A3036 RMK A01 T00011028  RH  081%=      5-min Rain = 0
KHA3 100556Z 24007KT 00/M03 A3036 RMK A01 T00021027  RH  081%=      5-min Rain = 0
KHA3 100557Z 24007KT 00/M03 A3036 RMK A01 T00031027  RH  080%=      5-min Rain = 0
KHA3 100558Z 24007KT 00/M03 A3036 RMK A01 T00041027  RH  080%=      5-min Rain = 0
KHA3 100559Z 24007KT 00/M03 A3037 RMK A01 T00041027  RH  080%=      5-min Rain = 0

Page generated in 0.0762 seconds.